Wetterdaten: Samstag, 23.01.2016
Datum Zeit Temp. Aussen Temp. o. S. +5cm Feuchte Auss BlattFeu 1 Luftdruck Regen Sonnenschein Regendauer Solar Windben Empfang
23.01.2016 00:00 0,4 C 0,0 C -0,6 C 96 % 15 lf 1021,7 hPa 0,0 l/m 0 min 0 min 0 W/m 10,5 km/h (2 Bft) 97,87 %
23.01.2016 00:02 0,5 C 0,0 C -0,6 C 96 % 15 lf 1021,6 hPa 0,0 l/m 0 min 0 min 0 W/m 8,4 km/h (2 Bft) 96,97 %
23.01.2016 00:06 0,5 C 0,0 C -0,6 C 96 % 15 lf 1021,7 hPa 0,0 l/m 0 min 0 min 0 W/m 12,6 km/h (3 Bft) 96,00 %
23.01.2016 00:08 0,5 C 0,0 C -0,6 C 96 % 15 lf 1021,5 hPa 0,0 l/m 0 min 0 min 0 W/m 10,5 km/h (2 Bft) 95,65 %
23.01.2016 00:10 0,5 C 0,0 C -0,6 C 97 % 15 lf 1021,6 hPa 0,0 l/m 0 min 0 min 0 W/m 8,4 km/h (2 Bft) 95,74 %
23.01.2016 00:12 0,5 C 0,0 C -0,6 C 97 % 15 lf 1021,6 hPa 0,0 l/m 0 min 0 min 0 W/m 10,5 km/h (2 Bft) 95,74 %
23.01.2016 00:14 0,5 C 0,0 C -0,6 C 97 % 15 lf 1021,7 hPa 0,2 l/m 0 min 0 min 0 W/m 8,4 km/h (2 Bft) 97,87 %
23.01.2016 00:16 0,5 C 0,6 C -0,6 C 97 % 15 lf 1021,6 hPa 0,0 l/m 0 min 0 min 0 W/m 10,5 km/h (2 Bft) 95,12 %
23.01.2016 00:18 0,5 C 0,6 C -0,6 C 97 % 15 lf 1021,7 hPa 0,0 l/m 0 min 0 min 0 W/m 12,6 km/h (3 Bft) 95,74 %
23.01.2016 00:20 0,5 C 0,6 C -0,6 C 97 % 15 lf 1021,8 hPa 0,0 l/m 0 min 0 min 0 W/m 12,6 km/h (3 Bft) 98,08 %
23.01.2016 00:22 0,5 C 1,1 C -0,6 C 97 % 15 lf 1021,7 hPa 0,0 l/m 0 min 0 min 0 W/m 10,5 km/h (2 Bft) 95,74 %
23.01.2016 00:24 0,5 C 1,1 C 0,0 C 97 % 15 lf 1021,7 hPa 0,0 l/m 0 min 0 min 0 W/m 12,6 km/h (3 Bft) 97,87 %
23.01.2016 00:26 0,6 C 1,1 C 0,0 C 97 % 15 lf 1021,8 hPa 0,0 l/m 0 min 0 min 0 W/m 14,6 km/h (3 Bft) 95,74 %
23.01.2016 00:28 0,6 C 1,1 C 0,0 C 97 % 15 lf 1021,8 hPa 0,0 l/m 0 min 0 min 0 W/m 10,5 km/h (2 Bft) 95,74 %
23.01.2016 00:30 0,7 C 1,1 C 0,0 C 97 % 15 lf 1021,8 hPa 0,0 l/m 0 min 0 min 0 W/m 10,5 km/h (2 Bft) 95,65 %
23.01.2016 00:32 0,7 C 1,1 C 0,0 C 97 % 15 lf 1021,8 hPa 0,0 l/m 0 min 0 min 0 W/m 12,6 km/h (3 Bft) 92,68 %
23.01.2016 00:34 0,8 C 1,1 C 0,0 C 97 % 15 lf 1021,8 hPa 0,0 l/m 0 min 0 min 0 W/m 12,6 km/h (3 Bft) 95,74 %
23.01.2016 00:36 0,8 C 1,1 C 0,0 C 97 % 15 lf 1021,9 hPa 0,0 l/m 0 min 0 min 0 W/m 12,6 km/h (3 Bft) 92,45 %
23.01.2016 00:38 0,8 C 1,1 C 0,0 C 97 % 15 lf 1021,9 hPa 0,0 l/m 0 min 0 min 0 W/m 10,5 km/h (2 Bft) 95,74 %
23.01.2016 00:40 0,9 C 1,1 C 0,0 C 97 % 15 lf 1021,9 hPa 0,0 l/m 0 min 0 min 0 W/m 10,5 km/h (2 Bft) 93,62 %
23.01.2016 00:42 0,9 C 1,1 C 0,0 C 97 % 15 lf 1021,9 hPa 0,0 l/m 0 min 0 min 0 W/m 10,5 km/h (2 Bft) 93,48 %
23.01.2016 00:44 0,9 C 1,1 C 0,0 C 97 % 15 lf 1021,9 hPa 0,0 l/m 0 min 0 min 0 W/m 12,6 km/h (3 Bft) 97,87 %
23.01.2016 00:46 1,0 C 1,1 C 0,0 C 97 % 15 lf 1021,9 hPa 0,0 l/m 0 min 0 min 0 W/m 12,6 km/h (3 Bft) 92,68 %
23.01.2016 00:48 1,0 C 1,1 C 0,0 C 97 % 15 lf 1022,0 hPa 0,0 l/m 0 min 0 min 0 W/m 8,4 km/h (2 Bft) 93,62 %
23.01.2016 00:50 1,0 C 1,1 C 0,0 C 97 % 15 lf 1022,0 hPa 0,0 l/m 0 min 0 min 0 W/m 8,4 km/h (2 Bft) 96,23 %
23.01.2016 00:52 1,1 C 1,7 C 0,0 C 97 % 15 lf 1021,9 hPa 0,0 l/m 0 min 0 min 0 W/m 10,5 km/h (2 Bft) 97,87 %
23.01.2016 00:54 1,1 C 1,7 C 0,0 C 97 % 15 lf 1021,9 hPa 0,0 l/m 0 min 0 min 0 W/m 8,4 km/h (2 Bft) 97,83 %
23.01.2016 00:56 1,1 C 1,7 C 0,0 C 97 % 15 lf 1022,0 hPa 0,0 l/m 0 min 0 min 0 W/m 6,3 km/h (2 Bft) 95,74 %
23.01.2016 00:58 1,1 C 1,7 C 0,0 C 97 % 15 lf 1022,0 hPa 0,0 l/m 0 min 0 min 0 W/m 4,2 km/h (1 Bft) 97,87 %
23.01.2016 01:00 1,1 C 1,7 C 0,0 C 97 % 15 lf 1022,0 hPa 0,0 l/m 0 min 0 min 0 W/m 6,3 km/h (2 Bft) 97,87 %
23.01.2016 01:02 1,2 C 1,7 C 0,0 C 97 % 15 lf 1021,9 hPa 0,0 l/m 0 min 0 min 0 W/m 6,3 km/h (2 Bft) 90,24 %
23.01.2016 01:04 1,2 C 1,7 C 0,0 C 97 % 15 lf 1022,0 hPa 0,0 l/m 0 min 0 min 0 W/m 8,4 km/h (2 Bft) 97,87 %
23.01.2016 01:06 1,2 C 1,7 C 0,6 C 97 % 15 lf 1022,0 hPa 0,0 l/m 0 min 0 min 0 W/m 10,5 km/h (2 Bft) 98,08 %
23.01.2016 01:08 1,2 C 1,7 C 0,6 C 97 % 15 lf 1022,1 hPa 0,0 l/m 0 min 0 min 0 W/m 8,4 km/h (2 Bft) 93,62 %
23.01.2016 01:10 1,2 C 1,7 C 0,6 C 97 % 15 lf 1022,1 hPa 0,0 l/m 0 min 0 min 0 W/m 8,4 km/h (2 Bft) 97,87 %
23.01.2016 01:12 1,2 C 2,2 C 0,6 C 97 % 15 lf 1022,1 hPa 0,0 l/m 0 min 0 min 0 W/m 4,2 km/h (1 Bft) 96,00 %
23.01.2016 01:14 1,3 C 2,2 C 0,6 C 97 % 15 lf 1022,1 hPa 0,0 l/m 0 min 0 min 0 W/m 6,3 km/h (2 Bft) 97,87 %
23.01.2016 01:16 1,3 C 2,2 C 0,6 C 97 % 15 lf 1022,2 hPa 0,0 l/m 0 min 0 min 0 W/m 8,4 km/h (2 Bft) 95,65 %
23.01.2016 01:18 1,4 C 2,2 C 0,6 C 97 % 15 lf 1022,1 hPa 0,0 l/m 0 min 0 min 0 W/m 8,4 km/h (2 Bft) 95,74 %
23.01.2016 01:20 1,4 C 2,2 C 0,6 C 97 % 15 lf 1022,1 hPa 0,0 l/m 0 min 0 min 0 W/m 12,6 km/h (3 Bft) 95,74 %
23.01.2016 01:22 1,6 C 2,8 C 1,1 C 97 % 15 lf 1022,1 hPa 0,0 l/m 0 min 0 min 0 W/m 10,5 km/h (2 Bft) 95,74 %
23.01.2016 01:24 1,6 C 2,8 C 1,1 C 97 % 15 lf 1022,1 hPa 0,0 l/m 0 min 0 min 0 W/m 8,4 km/h (2 Bft) 93,62 %
23.01.2016 01:26 1,7 C 2,8 C 1,1 C 97 % 15 lf 1022,0 hPa 0,0 l/m 0 min 0 min 0 W/m 10,5 km/h (2 Bft) 93,62 %
23.01.2016 01:28 1,7 C 2,8 C 1,1 C 97 % 15 lf 1022,0 hPa 0,0 l/m 0 min 0 min 0 W/m 16,7 km/h (3 Bft) 97,83 %
23.01.2016 01:30 1,9 C 3,3 C 1,1 C 97 % 15 lf 1022,1 hPa 0,0 l/m 0 min 0 min 0 W/m 16,7 km/h (3 Bft) 97,87 %
23.01.2016 01:32 2,1 C 3,3 C 1,7 C 97 % 15 lf 1022,1 hPa 0,0 l/m 0 min 0 min 0 W/m 23,0 km/h (4 Bft) 95,74 %
23.01.2016 01:34 2,2 C 3,9 C 2,2 C 97 % 15 lf 1022,2 hPa 0,0 l/m 0 min 0 min 0 W/m 20,9 km/h (4 Bft) 97,87 %
23.01.2016 01:36 2,5 C 3,9 C 2,2 C 97 % 15 lf 1022,3 hPa 0,0 l/m 0 min 0 min 0 W/m 16,7 km/h (3 Bft) 97,87 %
23.01.2016 01:38 2,7 C 3,9 C 2,2 C 98 % 15 lf 1022,3 hPa 0,0 l/m 0 min 0 min 0 W/m 20,9 km/h (4 Bft) 97,87 %
23.01.2016 01:40 2,9 C 3,9 C 2,2 C 98 % 15 lf 1022,4 hPa 0,0 l/m 0 min 0 min 0 W/m 20,9 km/h (4 Bft) 97,83 %
23.01.2016 01:42 3,1 C 3,9 C 2,2 C 98 % 15 lf 1022,4 hPa 0,0 l/m 0 min 0 min 0 W/m 18,8 km/h (3 Bft) 91,49 %
23.01.2016 01:44 3,2 C 4,4 C 2,8 C 98 % 15 lf 1022,5 hPa 0,0 l/m 0 min 0 min 0 W/m 20,9 km/h (4 Bft) 95,74 %
23.01.2016 01:46 3,4 C 4,4 C 2,8 C 98 % 15 lf 1022,4 hPa 0,0 l/m 0 min 0 min 0 W/m 18,8 km/h (3 Bft) 97,87 %
23.01.2016 01:48 3,5 C 4,4 C 2,8 C 98 % 15 lf 1022,5 hPa 0,0 l/m 0 min 0 min 0 W/m 25,1 km/h (4 Bft) 97,87 %
23.01.2016 01:50 3,6 C 4,4 C 2,8 C 98 % 15 lf 1022,6 hPa 0,0 l/m 0 min 0 min 0 W/m 25,1 km/h (4 Bft) 95,74 %
23.01.2016 01:52 3,7 C 4,4 C 2,8 C 98 % 15 lf 1022,6 hPa 0,0 l/m 0 min 0 min 0 W/m 23,0 km/h (4 Bft) 97,83 %
23.01.2016 01:54 3,8 C 4,4 C 2,8 C 98 % 15 lf 1022,6 hPa 0,0 l/m 0 min 0 min 0 W/m 29,3 km/h (5 Bft) 95,74 %
23.01.2016 01:56 3,9 C 4,4 C 2,8 C 98 % 15 lf 1022,5 hPa 0,0 l/m 0 min 0 min 0 W/m 20,9 km/h (4 Bft) 97,87 %
23.01.2016 01:58 3,9 C 4,4 C 2,8 C 98 % 15 lf 1022,5 hPa 0,0 l/m 0 min 0 min 0 W/m 29,3 km/h (5 Bft) 95,74 %
23.01.2016 02:00 4,0 C 4,4 C 2,8 C 98 % 15 lf 1022,5 hPa 0,0 l/m 0 min 0 min 0 W/m 27,2 km/h (4 Bft) 93,62 %
23.01.2016 02:02 4,1 C 4,4 C 2,8 C 98 % 15 lf 1022,6 hPa 0,0 l/m 0 min 0 min 0 W/m 18,8 km/h (3 Bft) 91,30 %
23.01.2016 02:04 4,1 C 4,4 C 2,8 C 98 % 15 lf 1022,5 hPa 0,0 l/m 0 min 0 min 0 W/m 18,8 km/h (3 Bft) 95,74 %
23.01.2016 02:06 4,1 C 4,4 C 2,8 C 98 % 15 lf 1022,5 hPa 0,0 l/m 0 min 0 min 0 W/m 29,3 km/h (5 Bft) 93,62 %
23.01.2016 02:08 4,2 C 4,4 C 2,8 C 98 % 15 lf 1022,5 hPa 0,0 l/m 0 min 0 min 0 W/m 27,2 km/h (4 Bft) 97,87 %
23.01.2016 02:10 4,2 C 4,4 C 2,8 C 98 % 15 lf 1022,5 hPa 0,0 l/m 0 min 0 min 0 W/m 18,8 km/h (3 Bft) 93,62 %
23.01.2016 02:12 4,2 C 4,4 C 2,8 C 98 % 15 lf 1022,6 hPa 0,0 l/m 0 min 0 min 0 W/m 23,0 km/h (4 Bft) 89,36 %
23.01.2016 02:14 4,2 C 4,4 C 2,8 C 98 % 15 lf 1022,6 hPa 0,0 l/m 0 min 0 min 0 W/m 25,1 km/h (4 Bft) 93,48 %
23.01.2016 02:16 4,2 C 4,4 C 2,8 C 98 % 15 lf 1022,7 hPa 0,0 l/m 0 min 0 min 0 W/m 27,2 km/h (4 Bft) 91,49 %
23.01.2016 02:18 4,2 C 4,4 C 2,8 C 98 % 15 lf 1022,6 hPa 0,0 l/m 0 min 0 min 0 W/m 27,2 km/h (4 Bft) 91,49 %
23.01.2016 02:20 4,2 C 4,4 C 2,8 C 98 % 15 lf 1022,7 hPa 0,0 l/m 0 min 0 min 0 W/m 16,7 km/h (3 Bft) 95,74 %
23.01.2016 02:22 4,2 C 4,4 C 2,8 C 98 % 15 lf 1022,7 hPa 0,0 l/m 0 min 0 min 0 W/m 20,9 km/h (4 Bft) 93,62 %
23.01.2016 02:24 4,3 C 4,4 C 2,8 C 98 % 15 lf 1022,7 hPa 0,0 l/m 0 min 0 min 0 W/m 20,9 km/h (4 Bft) 93,62 %
23.01.2016 02:26 4,3 C 4,4 C 2,8 C 98 % 15 lf 1022,7 hPa 0,0 l/m 0 min 0 min 0 W/m 23,0 km/h (4 Bft) 91,30 %
23.01.2016 02:28 4,3 C 4,4 C 2,8 C 98 % 15 lf 1022,7 hPa 0,0 l/m 0 min 0 min 0 W/m 20,9 km/h (4 Bft) 95,74 %
23.01.2016 02:30 4,3 C 4,4 C 2,8 C 98 % 15 lf 1022,7 hPa 0,0 l/m 0 min 0 min 0 W/m 20,9 km/h (4 Bft) 91,49 %
23.01.2016 02:32 4,3 C 4,4 C 2,8 C 98 % 15 lf 1022,7 hPa 0,0 l/m 0 min 0 min 0 W/m 18,8 km/h (3 Bft) 95,74 %
23.01.2016 02:34 4,3 C 4,4 C 2,8 C 98 % 15 lf 1022,8 hPa 0,0 l/m 0 min 0 min 0 W/m 18,8 km/h (3 Bft) 87,23 %
23.01.2016 02:36 4,3 C 4,4 C 2,8 C 98 % 15 lf 1023,0 hPa 0,0 l/m 0 min 0 min 0 W/m 23,0 km/h (4 Bft) 95,74 %
23.01.2016 02:38 4,3 C 4,4 C 2,8 C 98 % 15 lf 1023,1 hPa 0,0 l/m 0 min 0 min 0 W/m 14,6 km/h (3 Bft) 93,48 %
23.01.2016 02:40 4,3 C 4,4 C 2,8 C 98 % 15 lf 1023,1 hPa 0,0 l/m 0 min 0 min 0 W/m 18,8 km/h (3 Bft) 93,62 %
23.01.2016 02:42 4,3 C 4,4 C 2,8 C 98 % 15 lf 1023,1 hPa 0,0 l/m 0 min 0 min 0 W/m 23,0 km/h (4 Bft) 93,62 %
23.01.2016 02:44 4,4 C 4,4 C 2,8 C 98 % 15 lf 1023,2 hPa 0,0 l/m 0 min 0 min 0 W/m 25,1 km/h (4 Bft) 93,62 %
23.01.2016 02:46 4,4 C 4,4 C 2,8 C 98 % 15 lf 1023,1 hPa 0,0 l/m 0 min 0 min 0 W/m 27,2 km/h (4 Bft) 91,49 %
23.01.2016 02:48 4,4 C 4,4 C 3,3 C 98 % 15 lf 1023,2 hPa 0,0 l/m 0 min 0 min 0 W/m 27,2 km/h (4 Bft) 97,87 %
23.01.2016 02:50 4,4 C 4,4 C 3,3 C 98 % 15 lf 1023,2 hPa 0,0 l/m 0 min 0 min 0 W/m 18,8 km/h (3 Bft) 95,65 %
23.01.2016 02:52 4,4 C 4,4 C 3,3 C 98 % 15 lf 1023,2 hPa 0,0 l/m 0 min 0 min 0 W/m 23,0 km/h (4 Bft) 93,62 %
23.01.2016 02:54 4,5 C 4,4 C 3,3 C 98 % 15 lf 1023,2 hPa 0,0 l/m 0 min 0 min 0 W/m 25,1 km/h (4 Bft) 93,62 %
23.01.2016 02:56 4,5 C 4,4 C 3,3 C 98 % 15 lf 1023,2 hPa 0,0 l/m 0 min 0 min 0 W/m 20,9 km/h (4 Bft) 97,87 %
23.01.2016 02:58 4,5 C 4,4 C 3,3 C 98 % 15 lf 1023,2 hPa 0,0 l/m 0 min 0 min 0 W/m 16,7 km/h (3 Bft) 95,74 %
23.01.2016 03:00 4,5 C 4,4 C 3,3 C 98 % 15 lf 1023,2 hPa 0,0 l/m 0 min 0 min 0 W/m 20,9 km/h (4 Bft) 97,87 %
23.01.2016 03:02 4,5 C 4,4 C 3,3 C 98 % 15 lf 1023,3 hPa 0,0 l/m 0 min 0 min 0 W/m 18,8 km/h (3 Bft) 93,48 %
23.01.2016 03:04 4,5 C 4,4 C 3,3 C 98 % 15 lf 1023,4 hPa 0,0 l/m 0 min 0 min 0 W/m 14,6 km/h (3 Bft) 95,74 %
23.01.2016 03:06 4,5 C 5,0 C 3,3 C 98 % 15 lf 1023,4 hPa 0,0 l/m 0 min 0 min 0 W/m 16,7 km/h (3 Bft) 89,36 %
23.01.2016 03:08 4,5 C 5,0 C 3,3 C 98 % 15 lf 1023,4 hPa 0,0 l/m 0 min 0 min 0 W/m 14,6 km/h (3 Bft) 95,74 %
23.01.2016 03:10 4,5 C 5,0 C 3,3 C 98 % 15 lf 1023,4 hPa 0,0 l/m 0 min 0 min 0 W/m 23,0 km/h (4 Bft) 95,74 %
23.01.2016 03:12 4,6 C 5,0 C 3,3 C 98 % 15 lf 1023,5 hPa 0,0 l/m 0 min 0 min 0 W/m 23,0 km/h (4 Bft) 97,87 %
23.01.2016 03:14 4,6 C 5,0 C 3,3 C 98 % 15 lf 1023,4 hPa 0,0 l/m 0 min 0 min 0 W/m 14,6 km/h (3 Bft) 95,65 %
23.01.2016 03:16 4,6 C 5,0 C 3,3 C 98 % 15 lf 1023,4 hPa 0,0 l/m 0 min 0 min 0 W/m 14,6 km/h (3 Bft) 95,74 %
23.01.2016 03:18 4,6 C 5,0 C 3,3 C 98 % 15 lf 1023,6 hPa 0,0 l/m 0 min 0 min 0 W/m 16,7 km/h (3 Bft) 97,87 %
23.01.2016 03:20 4,6 C 5,0 C 3,3 C 98 % 15 lf 1023,6 hPa 0,0 l/m 0 min 0 min 0 W/m 18,8 km/h (3 Bft) 95,74 %
23.01.2016 03:22 4,6 C 5,0 C 3,3 C 98 % 15 lf 1023,6 hPa 0,0 l/m 0 min 0 min 0 W/m 18,8 km/h (3 Bft) 97,87 %
23.01.2016 03:24 4,6 C 5,0 C 3,3 C 98 % 15 lf 1023,6 hPa 0,0 l/m 0 min 0 min 0 W/m 20,9 km/h (4 Bft) 97,83 %
23.01.2016 03:26 4,6 C 5,0 C 3,3 C 98 % 15 lf 1023,6 hPa 0,0 l/m 0 min 0 min 0 W/m 25,1 km/h (4 Bft) 97,87 %
23.01.2016 03:28 4,6 C 5,0 C 3,3 C 98 % 15 lf 1023,6 hPa 0,0 l/m 0 min 0 min 0 W/m 23,0 km/h (4 Bft) 97,87 %
23.01.2016 03:30 4,7 C 5,0 C 3,3 C 98 % 15 lf 1023,6 hPa 0,0 l/m 0 min 0 min 0 W/m 18,8 km/h (3 Bft) 100,00 %
23.01.2016 03:32 4,7 C 5,0 C 3,3 C 98 % 15 lf 1023,8 hPa 0,0 l/m 0 min 0 min 0 W/m 23,0 km/h (4 Bft) 100,00 %
23.01.2016 03:34 4,7 C 5,0 C 3,3 C 98 % 15 lf 1023,8 hPa 0,0 l/m 0 min 0 min 0 W/m 23,0 km/h (4 Bft) 97,87 %
23.01.2016 03:36 4,7 C 5,0 C 3,3 C 98 % 15 lf 1023,8 hPa 0,0 l/m 0 min 0 min 0 W/m 20,9 km/h (4 Bft) 100,00 %
23.01.2016 03:38 4,7 C 5,0 C 3,3 C 98 % 15 lf 1023,8 hPa 0,0 l/m 0 min 0 min 0 W/m 23,0 km/h (4 Bft) 100,00 %
23.01.2016 03:40 4,8 C 5,0 C 3,3 C 98 % 15 lf 1023,9 hPa 0,0 l/m 0 min 0 min 0 W/m 23,0 km/h (4 Bft) 100,00 %
23.01.2016 03:42 4,8 C 5,0 C 3,3 C 98 % 15 lf 1023,9 hPa 0,0 l/m 0 min 0 min 0 W/m 20,9 km/h (4 Bft) 95,74 %
23.01.2016 03:44 4,8 C 5,0 C 3,3 C 98 % 15 lf 1024,0 hPa 0,0 l/m 0 min 0 min 0 W/m 23,0 km/h (4 Bft) 97,87 %
23.01.2016 03:46 4,8 C 5,0 C 3,3 C 98 % 15 lf 1024,0 hPa 0,0 l/m 0 min 0 min 0 W/m 20,9 km/h (4 Bft) 97,87 %
23.01.2016 03:48 4,8 C 5,0 C 3,3 C 98 % 15 lf 1024,0 hPa 0,0 l/m 0 min 0 min 0 W/m 16,7 km/h (3 Bft) 97,83 %
23.01.2016 03:50 4,8 C 5,0 C 3,3 C 98 % 15 lf 1024,1 hPa 0,0 l/m 0 min 0 min 0 W/m 20,9 km/h (4 Bft) 97,87 %
23.01.2016 03:52 4,8 C 5,0 C 3,3 C 98 % 15 lf 1024,2 hPa 0,0 l/m 0 min 0 min 0 W/m 14,6 km/h (3 Bft) 100,00 %
23.01.2016 03:54 4,8 C 5,0 C 3,3 C 98 % 15 lf 1024,3 hPa 0,0 l/m 0 min 0 min 0 W/m 14,6 km/h (3 Bft) 100,00 %
23.01.2016 03:56 4,8 C 5,0 C 3,3 C 98 % 15 lf 1024,3 hPa 0,0 l/m 0 min 0 min 0 W/m 16,7 km/h (3 Bft) 97,87 %
23.01.2016 03:58 4,8 C 5,0 C 3,3 C 98 % 15 lf 1024,3 hPa 0,0 l/m 0 min 0 min 0 W/m 16,7 km/h (3 Bft) 95,74 %
23.01.2016 04:00 4,8 C 5,0 C 3,3 C 98 % 15 lf 1024,3 hPa 0,0 l/m 0 min 0 min 0 W/m 14,6 km/h (3 Bft) 95,65 %
23.01.2016 04:02 4,8 C 5,0 C 3,3 C 98 % 15 lf 1024,4 hPa 0,0 l/m 0 min 0 min 0 W/m 20,9 km/h (4 Bft) 100,00 %
23.01.2016 04:04 4,9 C 5,0 C 3,3 C 98 % 15 lf 1024,4 hPa 0,0 l/m 0 min 0 min 0 W/m 27,2 km/h (4 Bft) 95,74 %
23.01.2016 04:06 4,9 C 5,0 C 3,3 C 98 % 15 lf 1024,4 hPa 0,0 l/m 0 min 0 min 0 W/m 18,8 km/h (3 Bft) 97,87 %
23.01.2016 04:08 4,9 C 5,0 C 3,3 C 98 % 15 lf 1024,4 hPa 0,0 l/m 0 min 0 min 0 W/m 20,9 km/h (4 Bft) 97,87 %
23.01.2016 04:10 4,9 C 5,0 C 3,3 C 98 % 15 lf 1024,5 hPa 0,0 l/m 0 min 0 min 0 W/m 18,8 km/h (3 Bft) 97,87 %
23.01.2016 04:12 4,9 C 5,0 C 3,3 C 98 % 15 lf 1024,6 hPa 0,0 l/m 0 min 0 min 0 W/m 14,6 km/h (3 Bft) 95,65 %
23.01.2016 04:14 4,9 C 5,0 C 3,3 C 98 % 15 lf 1024,6 hPa 0,0 l/m 0 min 0 min 0 W/m 14,6 km/h (3 Bft) 97,87 %
23.01.2016 04:16 4,9 C 5,0 C 3,3 C 98 % 15 lf 1024,7 hPa 0,0 l/m 0 min 0 min 0 W/m 12,6 km/h (3 Bft) 97,87 %
23.01.2016 04:18 4,9 C 5,0 C 3,3 C 98 % 15 lf 1024,7 hPa 0,0 l/m 0 min 0 min 0 W/m 14,6 km/h (3 Bft) 97,87 %
23.01.2016 04:20 4,9 C 5,0 C 3,3 C 98 % 15 lf 1024,7 hPa 0,0 l/m 0 min 0 min 0 W/m 20,9 km/h (4 Bft) 93,62 %
23.01.2016 04:22 4,9 C 5,0 C 3,3 C 98 % 15 lf 1024,6 hPa 0,0 l/m 0 min 0 min 0 W/m 16,7 km/h (3 Bft) 97,83 %
23.01.2016 04:24 4,9 C 5,0 C 3,3 C 98 % 15 lf 1024,7 hPa 0,0 l/m 0 min 0 min 0 W/m 16,7 km/h (3 Bft) 97,87 %
23.01.2016 04:26 4,9 C 5,0 C 3,3 C 98 % 15 lf 1024,8 hPa 0,0 l/m 0 min 0 min 0 W/m 20,9 km/h (4 Bft) 97,87 %
23.01.2016 04:28 4,9 C 5,0 C 3,3 C 98 % 15 lf 1024,8 hPa 0,0 l/m 0 min 0 min 0 W/m 16,7 km/h (3 Bft) 93,62 %
23.01.2016 04:30 4,9 C 5,0 C 3,3 C 98 % 15 lf 1024,9 hPa 0,0 l/m 0 min 0 min 0 W/m 14,6 km/h (3 Bft) 97,87 %
23.01.2016 04:32 4,9 C 5,0 C 3,3 C 98 % 15 lf 1025,0 hPa 0,0 l/m 0 min 0 min 0 W/m 10,5 km/h (2 Bft) 95,74 %
23.01.2016 04:34 4,9 C 5,0 C 3,3 C 98 % 15 lf 1024,9 hPa 0,0 l/m 0 min 0 min 0 W/m 16,7 km/h (3 Bft) 97,83 %
23.01.2016 04:36 5,0 C 5,0 C 3,3 C 98 % 15 lf 1024,9 hPa 0,0 l/m 0 min 0 min 0 W/m 20,9 km/h (4 Bft) 95,74 %
23.01.2016 04:38 5,0 C 5,0 C 3,3 C 98 % 15 lf 1025,0 hPa 0,0 l/m 0 min 0 min 0 W/m 18,8 km/h (3 Bft) 97,87 %
23.01.2016 04:40 5,0 C 5,0 C 3,9 C 98 % 15 lf 1025,0 hPa 0,0 l/m 0 min 0 min 0 W/m 18,8 km/h (3 Bft) 93,62 %
23.01.2016 04:42 5,0 C 5,0 C 3,9 C 98 % 15 lf 1025,0 hPa 0,0 l/m 0 min 0 min 0 W/m 20,9 km/h (4 Bft) 93,62 %
23.01.2016 04:44 5,1 C 5,6 C 3,9 C 99 % 15 lf 1025,1 hPa 0,0 l/m 0 min 0 min 0 W/m 25,1 km/h (4 Bft) 100,00 %
23.01.2016 04:46 5,1 C 5,0 C 3,9 C 99 % 15 lf 1025,2 hPa 0,0 l/m 0 min 0 min 0 W/m 18,8 km/h (3 Bft) 100,00 %
23.01.2016 04:48 5,1 C 5,0 C 3,9 C 99 % 15 lf 1025,2 hPa 0,0 l/m 0 min 0 min 0 W/m 16,7 km/h (3 Bft) 97,87 %
23.01.2016 04:50 5,1 C 5,6 C 3,9 C 98 % 15 lf 1025,1 hPa 0,0 l/m 0 min 0 min 0 W/m 20,9 km/h (4 Bft) 97,87 %
23.01.2016 04:52 5,1 C 5,0 C 3,9 C 98 % 15 lf 1025,2 hPa 0,0 l/m 0 min 0 min 0 W/m 20,9 km/h (4 Bft) 100,00 %
23.01.2016 04:54 5,1 C 5,6 C 3,9 C 98 % 15 lf 1025,4 hPa 0,0 l/m 0 min 0 min 0 W/m 20,9 km/h (4 Bft) 97,87 %
23.01.2016 04:56 5,1 C 5,6 C 3,9 C 98 % 15 lf 1025,3 hPa 0,0 l/m 0 min 0 min 0 W/m 18,8 km/h (3 Bft) 95,74 %
23.01.2016 04:58 5,1 C 5,6 C 3,9 C 98 % 15 lf 1025,3 hPa 0,0 l/m 0 min 0 min 0 W/m 16,7 km/h (3 Bft) 95,65 %
23.01.2016 05:00 5,1 C 5,6 C 3,9 C 98 % 15 lf 1025,3 hPa 0,0 l/m 0 min 0 min 0 W/m 18,8 km/h (3 Bft) 91,49 %
23.01.2016 05:02 5,1 C 5,6 C 3,9 C 98 % 15 lf 1025,4 hPa 0,0 l/m 0 min 0 min 0 W/m 16,7 km/h (3 Bft) 95,74 %
23.01.2016 05:04 5,1 C 5,6 C 3,9 C 98 % 15 lf 1025,4 hPa 0,0 l/m 0 min 0 min 0 W/m 14,6 km/h (3 Bft) 95,74 %
23.01.2016 05:06 5,1 C 5,6 C 3,9 C 98 % 15 lf 1025,4 hPa 0,0 l/m 0 min 0 min 0 W/m 20,9 km/h (4 Bft) 93,62 %
23.01.2016 05:08 5,1 C 5,6 C 3,9 C 98 % 15 lf 1025,4 hPa 0,0 l/m 0 min 0 min 0 W/m 16,7 km/h (3 Bft) 93,62 %
23.01.2016 05:10 5,2 C 5,6 C 3,9 C 98 % 15 lf 1025,5 hPa 0,0 l/m 0 min 0 min 0 W/m 23,0 km/h (4 Bft) 93,48 %
23.01.2016 05:12 5,2 C 5,6 C 3,9 C 98 % 15 lf 1025,5 hPa 0,0 l/m 0 min 0 min 0 W/m 23,0 km/h (4 Bft) 91,49 %
23.01.2016 05:14 5,2 C 5,6 C 3,9 C 98 % 15 lf 1025,5 hPa 0,0 l/m 0 min 0 min 0 W/m 23,0 km/h (4 Bft) 95,74 %
23.01.2016 05:16 5,2 C 5,6 C 3,9 C 98 % 15 lf 1025,5 hPa 0,0 l/m 0 min 0 min 0 W/m 16,7 km/h (3 Bft) 93,62 %
23.01.2016 05:18 5,2 C 5,6 C 3,9 C 98 % 15 lf 1025,5 hPa 0,0 l/m 0 min 0 min 0 W/m 14,6 km/h (3 Bft) 93,62 %
23.01.2016 05:20 5,2 C 5,6 C 3,9 C 98 % 15 lf 1025,6 hPa 0,0 l/m 0 min 0 min 0 W/m 14,6 km/h (3 Bft) 89,36 %
23.01.2016 05:22 5,2 C 5,6 C 3,9 C 98 % 15 lf 1025,5 hPa 0,0 l/m 0 min 0 min 0 W/m 16,7 km/h (3 Bft) 93,48 %
23.01.2016 05:24 5,2 C 5,6 C 3,9 C 98 % 15 lf 1025,5 hPa 0,0 l/m 0 min 0 min 0 W/m 23,0 km/h (4 Bft) 89,36 %
23.01.2016 05:26 5,2 C 5,6 C 3,9 C 98 % 15 lf 1025,5 hPa 0,0 l/m 0 min 0 min 0 W/m 23,0 km/h (4 Bft) 93,62 %
23.01.2016 05:28 5,2 C 5,6 C 3,9 C 98 % 15 lf 1025,5 hPa 0,0 l/m 0 min 0 min 0 W/m 25,1 km/h (4 Bft) 93,62 %
23.01.2016 05:30 5,2 C 5,6 C 3,9 C 98 % 15 lf 1025,5 hPa 0,0 l/m 0 min 0 min 0 W/m 27,2 km/h (4 Bft) 93,62 %
23.01.2016 05:32 5,2 C 5,6 C 3,9 C 98 % 15 lf 1025,6 hPa 0,0 l/m 0 min 0 min 0 W/m 25,1 km/h (4 Bft) 93,62 %
23.01.2016 05:34 5,2 C 5,6 C 3,9 C 98 % 15 lf 1025,7 hPa 0,0 l/m 0 min 0 min 0 W/m 25,1 km/h (4 Bft) 93,48 %
23.01.2016 05:36 5,2 C 5,6 C 3,9 C 98 % 15 lf 1025,8 hPa 0,0 l/m 0 min 0 min 0 W/m 20,9 km/h (4 Bft) 93,62 %
23.01.2016 05:38 5,2 C 5,6 C 3,9 C 99 % 15 lf 1025,9 hPa 0,0 l/m 0 min 0 min 0 W/m 16,7 km/h (3 Bft) 93,62 %
23.01.2016 05:40 5,2 C 5,6 C 3,9 C 98 % 15 lf 1025,9 hPa 0,0 l/m 0 min 0 min 0 W/m 20,9 km/h (4 Bft) 91,49 %
23.01.2016 05:42 5,3 C 5,6 C 3,9 C 99 % 15 lf 1025,9 hPa 0,0 l/m 0 min 0 min 0 W/m 20,9 km/h (4 Bft) 91,49 %
23.01.2016 05:44 5,3 C 5,6 C 3,9 C 99 % 15 lf 1025,9 hPa 0,0 l/m 0 min 0 min 0 W/m 25,1 km/h (4 Bft) 95,65 %
23.01.2016 05:46 5,3 C 5,6 C 3,9 C 99 % 15 lf 1025,8 hPa 0,0 l/m 0 min 0 min 0 W/m 25,1 km/h (4 Bft) 95,74 %
23.01.2016 05:48 5,3 C 5,6 C 3,9 C 99 % 15 lf 1025,9 hPa 0,0 l/m 0 min 0 min 0 W/m 20,9 km/h (4 Bft) 95,74 %
23.01.2016 05:50 5,3 C 5,6 C 3,9 C 99 % 15 lf 1025,9 hPa 0,0 l/m 0 min 0 min 0 W/m 23,0 km/h (4 Bft) 93,62 %
23.01.2016 05:52 5,3 C 5,6 C 3,9 C 99 % 15 lf 1025,8 hPa 0,0 l/m 0 min 0 min 0 W/m 18,8 km/h (3 Bft) 93,62 %
23.01.2016 05:54 5,3 C 5,6 C 3,9 C 99 % 15 lf 1025,8 hPa 0,0 l/m 0 min 0 min 0 W/m 23,0 km/h (4 Bft) 95,74 %
23.01.2016 05:56 5,3 C 5,6 C 3,9 C 99 % 15 lf 1025,8 hPa 0,0 l/m 0 min 0 min 0 W/m 20,9 km/h (4 Bft) 93,62 %
23.01.2016 05:58 5,3 C 5,6 C 3,9 C 99 % 15 lf 1025,8 hPa 0,0 l/m 0 min 0 min 0 W/m 14,6 km/h (3 Bft) 93,48 %
23.01.2016 06:00 5,3 C 5,6 C 3,9 C 99 % 15 lf 1025,9 hPa 0,0 l/m 0 min 0 min 0 W/m 16,7 km/h (3 Bft) 85,11 %
23.01.2016 06:02 5,3 C 5,6 C 3,9 C 99 % 15 lf 1025,9 hPa 0,0 l/m 0 min 0 min 0 W/m 12,6 km/h (3 Bft) 93,62 %
23.01.2016 06:04 5,3 C 5,6 C 3,9 C 99 % 15 lf 1026,1 hPa 0,0 l/m 0 min 0 min 0 W/m 12,6 km/h (3 Bft) 93,75 %
23.01.2016 06:06 5,3 C 5,6 C 3,9 C 99 % 15 lf 1026,1 hPa 0,0 l/m 0 min 0 min 0 W/m 16,7 km/h (3 Bft) 91,49 %
23.01.2016 06:08 5,3 C 5,6 C 3,9 C 99 % 15 lf 1026,1 hPa 0,0 l/m 0 min 0 min 0 W/m 14,6 km/h (3 Bft) 93,48 %
23.01.2016 06:10 5,3 C 5,6 C 3,9 C 99 % 15 lf 1026,1 hPa 0,0 l/m 0 min 0 min 0 W/m 12,6 km/h (3 Bft) 97,87 %
23.01.2016 06:12 5,3 C 5,6 C 3,9 C 99 % 15 lf 1026,2 hPa 0,0 l/m 0 min 0 min 0 W/m 16,7 km/h (3 Bft) 97,87 %
23.01.2016 06:14 5,3 C 5,6 C 3,9 C 99 % 15 lf 1026,2 hPa 0,0 l/m 0 min 0 min 0 W/m 18,8 km/h (3 Bft) 95,74 %
23.01.2016 06:16 5,3 C 5,6 C 3,9 C 99 % 15 lf 1026,2 hPa 0,0 l/m 0 min 0 min 0 W/m 18,8 km/h (3 Bft) 97,87 %
23.01.2016 06:18 5,3 C 5,6 C 3,9 C 99 % 15 lf 1026,2 hPa 0,0 l/m 0 min 0 min 0 W/m 23,0 km/h (4 Bft) 95,74 %
23.01.2016 06:20 5,3 C 5,6 C 3,9 C 99 % 15 lf 1026,2 hPa 0,0 l/m 0 min 0 min 0 W/m 16,7 km/h (3 Bft) 95,65 %
23.01.2016 06:22 5,4 C 5,6 C 3,9 C 99 % 15 lf 1026,3 hPa 0,0 l/m 0 min 0 min 0 W/m 14,6 km/h (3 Bft) 97,87 %
23.01.2016 06:24 5,4 C 5,6 C 3,9 C 99 % 15 lf 1026,4 hPa 0,0 l/m 0 min 0 min 0 W/m 10,5 km/h (2 Bft) 95,74 %
23.01.2016 06:26 5,4 C 5,6 C 3,9 C 99 % 15 lf 1026,4 hPa 0,0 l/m 0 min 0 min 0 W/m 12,6 km/h (3 Bft) 97,87 %
23.01.2016 06:28 5,4 C 5,6 C 3,9 C 99 % 15 lf 1026,3 hPa 0,0 l/m 0 min 0 min 0 W/m 18,8 km/h (3 Bft) 95,74 %
23.01.2016 06:30 5,4 C 5,6 C 3,9 C 99 % 15 lf 1026,5 hPa 0,0 l/m 0 min 0 min 0 W/m 16,7 km/h (3 Bft) 97,87 %
23.01.2016 06:32 5,4 C 5,6 C 3,9 C 99 % 15 lf 1026,6 hPa 0,0 l/m 0 min 0 min 0 W/m 20,9 km/h (4 Bft) 97,83 %
23.01.2016 06:34 5,4 C 5,6 C 3,9 C 99 % 15 lf 1026,7 hPa 0,0 l/m 0 min 0 min 0 W/m 18,8 km/h (3 Bft) 100,00 %
23.01.2016 06:36 5,4 C 5,6 C 3,9 C 99 % 15 lf 1026,7 hPa 0,0 l/m 0 min 0 min 0 W/m 18,8 km/h (3 Bft) 97,87 %
23.01.2016 06:38 5,4 C 5,6 C 3,9 C 99 % 15 lf 1026,7 hPa 0,0 l/m 0 min 0 min 0 W/m 14,6 km/h (3 Bft) 100,00 %
23.01.2016 06:40 5,4 C 5,6 C 3,9 C 99 % 15 lf 1026,8 hPa 0,0 l/m 0 min 0 min 0 W/m 25,1 km/h (4 Bft) 100,00 %
23.01.2016 06:42 5,4 C 5,6 C 3,9 C 99 % 15 lf 1026,9 hPa 0,0 l/m 0 min 0 min 0 W/m 18,8 km/h (3 Bft) 95,65 %
23.01.2016 06:44 5,4 C 5,6 C 3,9 C 99 % 15 lf 1026,9 hPa 0,0 l/m 0 min 0 min 0 W/m 23,0 km/h (4 Bft) 97,87 %
23.01.2016 06:46 5,4 C 5,6 C 3,9 C 99 % 15 lf 1026,8 hPa 0,0 l/m 0 min 0 min 0 W/m 16,7 km/h (3 Bft) 100,00 %
23.01.2016 06:48 5,4 C 5,6 C 3,9 C 99 % 15 lf 1026,8 hPa 0,0 l/m 0 min 0 min 0 W/m 23,0 km/h (4 Bft) 97,87 %
23.01.2016 06:50 5,4 C 5,6 C 3,9 C 99 % 15 lf 1026,8 hPa 0,0 l/m 0 min 0 min 0 W/m 20,9 km/h (4 Bft) 100,00 %
23.01.2016 06:52 5,4 C 5,6 C 3,9 C 99 % 15 lf 1026,8 hPa 0,0 l/m 0 min 0 min 0 W/m 23,0 km/h (4 Bft) 97,87 %
23.01.2016 06:54 5,4 C 5,6 C 3,9 C 99 % 15 lf 1027,0 hPa 0,0 l/m 0 min 0 min 0 W/m 18,8 km/h (3 Bft) 100,00 %
23.01.2016 06:56 5,4 C 5,6 C 3,9 C 99 % 15 lf 1027,0 hPa 0,0 l/m 0 min 0 min 0 W/m 23,0 km/h (4 Bft) 100,00 %
23.01.2016 06:58 5,5 C 5,6 C 3,9 C 99 % 15 lf 1027,1 hPa 0,0 l/m 0 min 0 min 0 W/m 23,0 km/h (4 Bft) 100,00 %
23.01.2016 07:00 5,5 C 5,6 C 3,9 C 99 % 15 lf 1027,1 hPa 0,0 l/m 0 min 0 min 0 W/m 20,9 km/h (4 Bft) 91,49 %
23.01.2016 07:02 5,5 C 5,6 C 3,9 C 99 % 15 lf 1027,1 hPa 0,0 l/m 0 min 0 min 0 W/m 20,9 km/h (4 Bft) 95,74 %
23.01.2016 07:04 5,5 C 5,6 C 3,9 C 99 % 15 lf 1027,1 hPa 0,0 l/m 0 min 0 min 0 W/m 23,0 km/h (4 Bft) 100,00 %
23.01.2016 07:06 5,5 C 5,6 C 3,9 C 99 % 15 lf 1027,1 hPa 0,0 l/m 0 min 0 min 0 W/m 23,0 km/h (4 Bft) 100,00 %
23.01.2016 07:08 5,6 C 5,6 C 3,9 C 99 % 15 lf 1027,2 hPa 0,0 l/m 0 min 0 min 0 W/m 16,7 km/h (3 Bft) 100,00 %
23.01.2016 07:10 5,6 C 5,6 C 3,9 C 99 % 15 lf 1027,2 hPa 0,0 l/m 0 min 0 min 0 W/m 14,6 km/h (3 Bft) 97,87 %
23.01.2016 07:12 5,6 C 5,6 C 3,9 C 99 % 15 lf 1027,3 hPa 0,0 l/m 0 min 0 min 0 W/m 12,6 km/h (3 Bft) 100,00 %
23.01.2016 07:14 5,6 C 5,6 C 3,9 C 99 % 15 lf 1027,4 hPa 0,0 l/m 0 min 0 min 0 W/m 14,6 km/h (3 Bft) 97,87 %
23.01.2016 07:16 5,6 C 5,6 C 3,9 C 99 % 15 lf 1027,4 hPa 0,0 l/m 0 min 0 min 0 W/m 10,5 km/h (2 Bft) 100,00 %
23.01.2016 07:18 5,6 C 5,6 C 3,9 C 99 % 15 lf 1027,5 hPa 0,0 l/m 0 min 0 min 0 W/m 12,6 km/h (3 Bft) 95,65 %
23.01.2016 07:20 5,5 C 5,6 C 3,9 C 99 % 15 lf 1027,5 hPa 0,0 l/m 0 min 0 min 0 W/m 14,6 km/h (3 Bft) 100,00 %
23.01.2016 07:22 5,6 C 5,6 C 3,9 C 99 % 15 lf 1027,5 hPa 0,0 l/m 0 min 0 min 0 W/m 16,7 km/h (3 Bft) 100,00 %
23.01.2016 07:24 5,6 C 5,6 C 3,9 C 99 % 15 lf 1027,5 hPa 0,0 l/m 0 min 0 min 0 W/m 20,9 km/h (4 Bft) 100,00 %
23.01.2016 07:26 5,6 C 5,6 C 3,9 C 99 % 15 lf 1027,6 hPa 0,0 l/m 0 min 0 min 0 W/m 12,6 km/h (3 Bft) 97,87 %
23.01.2016 07:28 5,6 C 5,6 C 4,4 C 99 % 15 lf 1027,6 hPa 0,0 l/m 0 min 0 min 0 W/m 18,8 km/h (3 Bft) 100,00 %
23.01.2016 07:30 5,6 C 5,6 C 3,9 C 99 % 15 lf 1027,7 hPa 0,0 l/m 0 min 0 min 0 W/m 12,6 km/h (3 Bft) 100,00 %
23.01.2016 07:32 5,6 C 5,6 C 3,9 C 99 % 15 lf 1027,8 hPa 0,0 l/m 0 min 0 min 0 W/m 14,6 km/h (3 Bft) 100,00 %
23.01.2016 07:34 5,6 C 5,6 C 3,9 C 99 % 15 lf 1027,8 hPa 0,0 l/m 0 min 0 min 0 W/m 14,6 km/h (3 Bft) 100,00 %
23.01.2016 07:36 5,6 C 5,6 C 3,9 C 99 % 15 lf 1027,9 hPa 0,0 l/m 0 min 0 min 0 W/m 18,8 km/h (3 Bft) 100,00 %
23.01.2016 07:38 5,6 C 5,6 C 3,9 C 99 % 15 lf 1027,8 hPa 0,0 l/m 0 min 0 min 0 W/m 16,7 km/h (3 Bft) 100,00 %
23.01.2016 07:40 5,6 C 5,6 C 3,9 C 99 % 15 lf 1027,9 hPa 0,0 l/m 0 min 0 min 0 W/m 14,6 km/h (3 Bft) 97,87 %
23.01.2016 07:42 5,6 C 5,6 C 3,9 C 99 % 15 lf 1027,9 hPa 0,0 l/m 0 min 0 min 0 W/m 14,6 km/h (3 Bft) 100,00 %
23.01.2016 07:44 5,6 C 5,6 C 3,9 C 99 % 15 lf 1027,9 hPa 0,0 l/m 0 min 0 min 0 W/m 14,6 km/h (3 Bft) 95,74 %
23.01.2016 07:46 5,6 C 5,6 C 3,9 C 99 % 15 lf 1027,9 hPa 0,0 l/m 0 min 0 min 0 W/m 16,7 km/h (3 Bft) 100,00 %
23.01.2016 07:48 5,6 C 5,6 C 3,9 C 99 % 15 lf 1027,9 hPa 0,0 l/m 0 min 0 min 0 W/m 16,7 km/h (3 Bft) 97,87 %
23.01.2016 07:50 5,6 C 5,6 C 4,4 C 99 % 15 lf 1028,0 hPa 0,0 l/m 0 min 0 min 0 W/m 12,6 km/h (3 Bft) 91,49 %
23.01.2016 07:52 5,6 C 5,6 C 4,4 C 99 % 15 lf 1028,1 hPa 0,0 l/m 0 min 0 min 0 W/m 14,6 km/h (3 Bft) 93,48 %
23.01.2016 07:54 5,6 C 5,6 C 3,9 C 99 % 15 lf 1028,2 hPa 0,0 l/m 0 min 0 min 0 W/m 14,6 km/h (3 Bft) 93,62 %
23.01.2016 07:56 5,6 C 5,6 C 4,4 C 99 % 15 lf 1028,3 hPa 0,0 l/m 0 min 0 min 0 W/m 12,6 km/h (3 Bft) 95,74 %
23.01.2016 07:58 5,6 C 5,6 C 4,4 C 99 % 15 lf 1028,3 hPa 0,0 l/m 0 min 0 min 0 W/m 12,6 km/h (3 Bft) 95,74 %
23.01.2016 08:00 5,6 C 5,6 C 4,4 C 99 % 15 lf 1028,4 hPa 0,0 l/m 0 min 0 min 0 W/m 14,6 km/h (3 Bft) 95,74 %
23.01.2016 08:02 5,6 C 5,6 C 4,4 C 99 % 15 lf 1028,4 hPa 0,0 l/m 0 min 0 min 0 W/m 16,7 km/h (3 Bft) 93,62 %
23.01.2016 08:04 5,6 C 5,6 C 4,4 C 99 % 15 lf 1028,5 hPa 0,0 l/m 0 min 0 min 0 W/m 12,6 km/h (3 Bft) 93,48 %
23.01.2016 08:06 5,6 C 5,6 C 3,9 C 99 % 15 lf 1028,5 hPa 0,0 l/m 0 min 0 min 0 W/m 16,7 km/h (3 Bft) 95,74 %
23.01.2016 08:08 5,6 C 5,6 C 4,4 C 99 % 15 lf 1028,6 hPa 0,0 l/m 0 min 0 min 0 W/m 14,6 km/h (3 Bft) 93,62 %
23.01.2016 08:10 5,6 C 5,6 C 4,4 C 99 % 15 lf 1028,6 hPa 0,0 l/m 0 min 0 min 0 W/m 16,7 km/h (3 Bft) 93,62 %
23.01.2016 08:12 5,6 C 6,1 C 4,4 C 99 % 15 lf 1028,6 hPa 0,0 l/m 0 min 0 min 0 W/m 10,5 km/h (2 Bft) 93,62 %
23.01.2016 08:14 5,6 C 6,1 C 4,4 C 99 % 15 lf 1028,6 hPa 0,0 l/m 0 min 0 min 0 W/m 16,7 km/h (3 Bft) 93,62 %
23.01.2016 08:16 5,6 C 6,1 C 4,4 C 99 % 15 lf 1028,8 hPa 0,0 l/m 0 min 0 min 0 W/m 14,6 km/h (3 Bft) 89,13 %
23.01.2016 08:18 5,7 C 6,1 C 4,4 C 99 % 15 lf 1028,9 hPa 0,0 l/m 0 min 0 min 0 W/m 16,7 km/h (3 Bft) 85,11 %
23.01.2016 08:20 5,7 C 6,1 C 4,4 C 99 % 15 lf 1028,8 hPa 0,0 l/m 0 min 0 min 0 W/m 20,9 km/h (4 Bft) 93,62 %
23.01.2016 08:22 5,7 C 6,1 C 4,4 C 99 % 15 lf 1028,8 hPa 0,0 l/m 0 min 0 min 0 W/m 16,7 km/h (3 Bft) 93,62 %
23.01.2016 08:24 5,7 C 6,1 C 4,4 C 99 % 15 lf 1028,8 hPa 0,0 l/m 0 min 0 min 0 W/m 14,6 km/h (3 Bft) 95,74 %
23.01.2016 08:26 5,7 C 6,1 C 4,4 C 99 % 15 lf 1029,0 hPa 0,0 l/m 0 min 0 min 0 W/m 12,6 km/h (3 Bft) 91,49 %
23.01.2016 08:28 5,7 C 6,1 C 4,4 C 99 % 15 lf 1029,0 hPa 0,0 l/m 0 min 0 min 0 W/m 14,6 km/h (3 Bft) 91,30 %
23.01.2016 08:30 5,7 C 6,1 C 4,4 C 99 % 15 lf 1028,9 hPa 0,0 l/m 0 min 0 min 5 W/m 16,7 km/h (3 Bft) 95,74 %
23.01.2016 08:32 5,7 C 6,1 C 4,4 C 99 % 15 lf 1028,8 hPa 0,0 l/m 0 min 0 min 5 W/m 14,6 km/h (3 Bft) 95,74 %
23.01.2016 08:34 5,7 C 6,1 C 4,4 C 99 % 15 lf 1028,8 hPa 0,0 l/m 0 min 0 min 5 W/m 10,5 km/h (2 Bft) 93,62 %
23.01.2016 08:36 5,7 C 6,1 C 4,4 C 99 % 15 lf 1028,8 hPa 0,0 l/m 0 min 0 min 6 W/m 10,5 km/h (2 Bft) 93,62 %
23.01.2016 08:38 5,7 C 6,1 C 4,4 C 99 % 15 lf 1028,8 hPa 0,0 l/m 0 min 0 min 7 W/m 14,6 km/h (3 Bft) 95,74 %
23.01.2016 08:40 5,8 C 6,1 C 4,4 C 99 % 15 lf 1028,8 hPa 0,0 l/m 0 min 0 min 7 W/m 10,5 km/h (2 Bft) 95,65 %
23.01.2016 08:42 5,8 C 6,1 C 4,4 C 99 % 15 lf 1028,8 hPa 0,0 l/m 0 min 0 min 7 W/m 14,6 km/h (3 Bft) 95,74 %
23.01.2016 08:44 5,8 C 6,1 C 4,4 C 99 % 15 lf 1028,8 hPa 0,0 l/m 0 min 0 min 7 W/m 12,6 km/h (3 Bft) 97,87 %
23.01.2016 08:46 5,8 C 6,1 C 4,4 C 99 % 15 lf 1028,9 hPa 0,0 l/m 0 min 0 min 9 W/m 20,9 km/h (4 Bft) 95,74 %
23.01.2016 08:48 5,8 C 6,1 C 4,4 C 99 % 15 lf 1028,9 hPa 0,0 l/m 0 min 0 min 9 W/m 14,6 km/h (3 Bft) 100,00 %
23.01.2016 08:50 5,8 C 6,1 C 4,4 C 99 % 15 lf 1028,9 hPa 0,0 l/m 0 min 0 min 10 W/m 16,7 km/h (3 Bft) 97,87 %
23.01.2016 08:52 5,8 C 6,1 C 4,4 C 99 % 15 lf 1029,0 hPa 0,0 l/m 0 min 0 min 11 W/m 12,6 km/h (3 Bft) 93,48 %
23.01.2016 08:54 5,8 C 6,1 C 4,4 C 99 % 15 lf 1029,1 hPa 0,0 l/m 0 min 0 min 12 W/m 8,4 km/h (2 Bft) 100,00 %
23.01.2016 08:56 5,8 C 6,1 C 4,4 C 99 % 15 lf 1029,1 hPa 0,0 l/m 0 min 0 min 12 W/m 12,6 km/h (3 Bft) 100,00 %
23.01.2016 08:58 5,8 C 6,1 C 4,4 C 99 % 15 lf 1029,1 hPa 0,0 l/m 0 min 0 min 14 W/m 8,4 km/h (2 Bft) 95,74 %
23.01.2016 09:00 5,8 C 6,1 C 4,4 C 99 % 15 lf 1029,2 hPa 0,0 l/m 0 min 0 min 14 W/m 12,6 km/h (3 Bft) 93,62 %
23.01.2016 09:02 5,8 C 6,1 C 4,4 C 99 % 15 lf 1029,2 hPa 0,0 l/m 0 min 0 min 17 W/m 10,5 km/h (2 Bft) 95,65 %
23.01.2016 09:04 5,8 C 6,1 C 4,4 C 99 % 15 lf 1029,3 hPa 0,0 l/m 0 min 0 min 19 W/m 16,7 km/h (3 Bft) 97,87 %
23.01.2016 09:06 5,8 C 6,1 C 4,4 C 99 % 15 lf 1029,3 hPa 0,0 l/m 0 min 0 min 18 W/m 12,6 km/h (3 Bft) 95,74 %
23.01.2016 09:08 5,8 C 6,1 C 4,4 C 99 % 15 lf 1029,4 hPa 0,0 l/m 0 min 0 min 18 W/m 12,6 km/h (3 Bft) 95,74 %
23.01.2016 09:10 5,8 C 6,1 C 4,4 C 99 % 15 lf 1029,5 hPa 0,0 l/m 0 min 0 min 21 W/m 10,5 km/h (2 Bft) 97,87 %
23.01.2016 09:12 5,8 C 6,1 C 4,4 C 99 % 15 lf 1029,5 hPa 0,0 l/m 0 min 0 min 19 W/m 18,8 km/h (3 Bft) 97,87 %
23.01.2016 09:14 5,8 C 6,1 C 4,4 C 99 % 15 lf 1029,6 hPa 0,0 l/m 0 min 0 min 18 W/m 14,6 km/h (3 Bft) 97,83 %
23.01.2016 09:16 5,8 C 6,1 C 4,4 C 99 % 15 lf 1029,6 hPa 0,0 l/m 0 min 0 min 21 W/m 12,6 km/h (3 Bft) 89,47 %
23.01.2016 09:18 5,9 C 6,1 C 4,4 C 99 % 15 lf 1029,7 hPa 0,0 l/m 0 min 0 min 24 W/m 14,6 km/h (3 Bft) 97,83 %
23.01.2016 09:20 5,9 C 6,1 C 4,4 C 99 % 15 lf 1029,9 hPa 0,0 l/m 0 min 0 min 22 W/m 20,9 km/h (4 Bft) 97,87 %
23.01.2016 09:22 5,9 C 6,1 C 4,4 C 99 % 15 lf 1029,9 hPa 0,0 l/m 0 min 0 min 22 W/m 14,6 km/h (3 Bft) 95,74 %
23.01.2016 09:24 5,9 C 6,1 C 4,4 C 99 % 15 lf 1030,0 hPa 0,0 l/m 0 min 0 min 22 W/m 14,6 km/h (3 Bft) 97,87 %
23.01.2016 09:26 5,9 C 6,1 C 4,4 C 99 % 15 lf 1030,0 hPa 0,0 l/m 0 min 0 min 23 W/m 10,5 km/h (2 Bft) 95,74 %
23.01.2016 09:28 5,9 C 6,1 C 4,4 C 99 % 15 lf 1029,8 hPa 0,0 l/m 0 min 0 min 27 W/m 14,6 km/h (3 Bft) 97,87 %
23.01.2016 09:30 5,9 C 6,7 C 4,4 C 99 % 15 lf 1029,9 hPa 0,0 l/m 0 min 0 min 32 W/m 12,6 km/h (3 Bft) 95,65 %
23.01.2016 09:32 5,9 C 6,7 C 4,4 C 99 % 15 lf 1030,0 hPa 0,0 l/m 0 min 0 min 38 W/m 12,6 km/h (3 Bft) 95,74 %
23.01.2016 09:34 5,9 C 6,7 C 4,4 C 99 % 15 lf 1030,0 hPa 0,0 l/m 0 min 0 min 36 W/m 16,7 km/h (3 Bft) 95,74 %
23.01.2016 09:36 6,0 C 6,7 C 5,0 C 99 % 15 lf 1030,0 hPa 0,0 l/m 0 min 0 min 38 W/m 16,7 km/h (3 Bft) 97,87 %
23.01.2016 09:38 6,0 C 6,7 C 4,4 C 99 % 15 lf 1029,9 hPa 0,0 l/m 0 min 0 min 39 W/m 14,6 km/h (3 Bft) 93,62 %
23.01.2016 09:40 6,0 C 6,7 C 4,4 C 99 % 15 lf 1030,0 hPa 0,0 l/m 0 min 0 min 46 W/m 16,7 km/h (3 Bft) 97,83 %
23.01.2016 09:42 6,0 C 6,7 C 5,0 C 99 % 15 lf 1030,1 hPa 0,0 l/m 0 min 0 min 44 W/m 16,7 km/h (3 Bft) 95,74 %
23.01.2016 09:44 6,1 C 6,7 C 5,0 C 99 % 15 lf 1030,2 hPa 0,0 l/m 0 min 0 min 49 W/m 10,5 km/h (2 Bft) 93,62 %
23.01.2016 09:46 6,1 C 6,7 C 5,0 C 99 % 15 lf 1030,2 hPa 0,0 l/m 0 min 0 min 49 W/m 14,6 km/h (3 Bft) 93,62 %
23.01.2016 09:48 6,1 C 6,7 C 5,0 C 99 % 15 lf 1030,2 hPa 0,0 l/m 0 min 0 min 37 W/m 25,1 km/h (4 Bft) 91,49 %
23.01.2016 09:50 6,1 C 6,7 C 5,0 C 99 % 15 lf 1030,2 hPa 0,0 l/m 0 min 0 min 33 W/m 14,6 km/h (3 Bft) 93,62 %
23.01.2016 09:52 6,1 C 6,7 C 5,0 C 99 % 15 lf 1030,3 hPa 0,0 l/m 0 min 0 min 31 W/m 14,6 km/h (3 Bft) 97,83 %
23.01.2016 09:54 6,1 C 6,7 C 5,0 C 99 % 15 lf 1030,4 hPa 0,0 l/m 0 min 0 min 29 W/m 10,5 km/h (2 Bft) 95,74 %
23.01.2016 09:56 6,1 C 6,7 C 5,0 C 99 % 15 lf 1030,4 hPa 0,0 l/m 0 min 0 min 26 W/m 10,5 km/h (2 Bft) 95,74 %
23.01.2016 09:58 6,1 C 6,7 C 5,0 C 99 % 15 lf 1030,3 hPa 0,0 l/m 0 min 0 min 30 W/m 10,5 km/h (2 Bft) 91,49 %
23.01.2016 10:00 6,1 C 6,7 C 5,0 C 99 % 15 lf 1030,2 hPa 0,0 l/m 0 min 0 min 36 W/m 10,5 km/h (2 Bft) 95,74 %
23.01.2016 10:02 6,1 C 6,7 C 5,0 C 99 % 15 lf 1030,2 hPa 0,0 l/m 0 min 0 min 40 W/m 10,5 km/h (2 Bft) 93,62 %
23.01.2016 10:04 6,2 C 6,7 C 5,0 C 99 % 15 lf 1030,3 hPa 0,0 l/m 0 min 0 min 37 W/m 10,5 km/h (2 Bft) 93,48 %
23.01.2016 10:06 6,2 C 6,7 C 5,0 C 99 % 15 lf 1030,4 hPa 0,0 l/m 0 min 0 min 44 W/m 16,7 km/h (3 Bft) 95,74 %
23.01.2016 10:08 6,2 C 6,7 C 5,0 C 99 % 15 lf 1030,4 hPa 0,0 l/m 0 min 0 min 41 W/m 12,6 km/h (3 Bft) 95,74 %
23.01.2016 10:10 6,2 C 6,7 C 5,0 C 99 % 15 lf 1030,5 hPa 0,0 l/m 0 min 0 min 39 W/m 12,6 km/h (3 Bft) 95,74 %
23.01.2016 10:12 6,2 C 6,7 C 5,0 C 99 % 15 lf 1030,4 hPa 0,0 l/m 0 min 0 min 45 W/m 12,6 km/h (3 Bft) 95,74 %
23.01.2016 10:14 6,2 C 6,7 C 5,0 C 99 % 15 lf 1030,3 hPa 0,0 l/m 0 min 0 min 64 W/m 14,6 km/h (3 Bft) 100,00 %
23.01.2016 10:16 6,2 C 7,2 C 5,0 C 99 % 15 lf 1030,2 hPa 0,0 l/m 0 min 0 min 76 W/m 12,6 km/h (3 Bft) 100,00 %
23.01.2016 10:18 6,2 C 7,2 C 5,0 C 99 % 15 lf 1030,3 hPa 0,0 l/m 0 min 0 min 76 W/m 14,6 km/h (3 Bft) 100,00 %
23.01.2016 10:20 6,2 C 7,2 C 5,0 C 99 % 15 lf 1030,3 hPa 0,0 l/m 0 min 0 min 75 W/m 14,6 km/h (3 Bft) 100,00 %
23.01.2016 10:22 6,2 C 7,2 C 5,0 C 99 % 15 lf 1030,3 hPa 0,0 l/m 0 min 0 min 80 W/m 12,6 km/h (3 Bft) 97,87 %
23.01.2016 10:24 6,3 C 7,2 C 5,0 C 99 % 15 lf 1030,4 hPa 0,0 l/m 0 min 0 min 61 W/m 16,7 km/h (3 Bft) 97,87 %
23.01.2016 10:26 6,3 C 6,7 C 5,0 C 99 % 14 lf 1030,6 hPa 0,0 l/m 0 min 0 min 49 W/m 18,8 km/h (3 Bft) 95,74 %
23.01.2016 10:28 6,3 C 6,7 C 5,0 C 99 % 14 lf 1030,6 hPa 0,0 l/m 0 min 0 min 40 W/m 16,7 km/h (3 Bft) 100,00 %
23.01.2016 10:30 6,3 C 6,7 C 5,0 C 99 % 13 lf 1030,5 hPa 0,0 l/m 0 min 0 min 38 W/m 16,7 km/h (3 Bft) 95,74 %
23.01.2016 10:32 6,3 C 6,7 C 5,0 C 99 % 13 lf 1030,4 hPa 0,0 l/m 0 min 0 min 48 W/m 18,8 km/h (3 Bft) 95,74 %
23.01.2016 10:34 6,3 C 6,7 C 5,0 C 99 % 12 lf 1030,3 hPa 0,0 l/m 0 min 0 min 78 W/m 20,9 km/h (4 Bft) 97,87 %
23.01.2016 10:36 6,3 C 7,2 C 5,0 C 99 % 10 lf 1030,2 hPa 0,0 l/m 0 min 0 min 102 W/m 14,6 km/h (3 Bft) 100,00 %
23.01.2016 10:38 6,3 C 7,2 C 5,0 C 99 % 8 lf 1030,3 hPa 0,0 l/m 0 min 0 min 91 W/m 14,6 km/h (3 Bft) 97,87 %
23.01.2016 10:40 6,3 C 7,2 C 5,0 C 99 % 7 lf 1030,3 hPa 0,0 l/m 0 min 0 min 119 W/m 12,6 km/h (3 Bft) 97,83 %
23.01.2016 10:42 6,4 C 7,2 C 5,6 C 99 % 4 lf 1030,4 hPa 0,0 l/m 0 min 0 min 101 W/m 12,6 km/h (3 Bft) 93,62 %
23.01.2016 10:44 6,4 C 7,2 C 5,6 C 99 % 4 lf 1030,4 hPa 0,0 l/m 0 min 0 min 98 W/m 10,5 km/h (2 Bft) 100,00 %
23.01.2016 10:46 6,4 C 7,2 C 5,6 C 99 % 3 lf 1030,4 hPa 0,0 l/m 0 min 0 min 97 W/m 12,6 km/h (3 Bft) 97,87 %
23.01.2016 10:48 6,4 C 7,8 C 5,6 C 99 % 3 lf 1030,5 hPa 0,0 l/m 0 min 0 min 93 W/m 6,3 km/h (2 Bft) 91,49 %
23.01.2016 10:50 6,4 C 7,2 C 5,6 C 99 % 2 lf 1030,6 hPa 0,0 l/m 0 min 0 min 84 W/m 12,6 km/h (3 Bft) 93,62 %
23.01.2016 10:52 6,4 C 7,2 C 5,6 C 99 % 1 lf 1030,6 hPa 0,0 l/m 0 min 0 min 87 W/m 14,6 km/h (3 Bft) 93,48 %
23.01.2016 10:54 6,4 C 7,2 C 5,6 C 99 % 1 lf 1030,5 hPa 0,0 l/m 0 min 0 min 74 W/m 14,6 km/h (3 Bft) 95,74 %
23.01.2016 10:56 6,4 C 7,2 C 5,6 C 99 % 1 lf 1030,5 hPa 0,0 l/m 0 min 0 min 71 W/m 14,6 km/h (3 Bft) 95,74 %
23.01.2016 10:58 6,5 C 7,2 C 5,6 C 99 % 1 lf 1030,5 hPa 0,0 l/m 0 min 0 min 110 W/m 12,6 km/h (3 Bft) 91,49 %
23.01.2016 11:00 6,5 C 7,8 C 5,6 C 99 % 1 lf 1030,5 hPa 0,0 l/m 0 min 0 min 125 W/m 14,6 km/h (3 Bft) 93,62 %
23.01.2016 11:02 6,6 C 7,8 C 5,6 C 99 % 1 lf 1030,4 hPa 0,0 l/m 0 min 0 min 120 W/m 12,6 km/h (3 Bft) 93,48 %
23.01.2016 11:04 6,6 C 7,2 C 5,6 C 99 % 1 lf 1030,4 hPa 0,0 l/m 0 min 0 min 84 W/m 14,6 km/h (3 Bft) 95,74 %
23.01.2016 11:06 6,6 C 7,8 C 5,6 C 99 % 1 lf 1030,5 hPa 0,0 l/m 0 min 0 min 87 W/m 10,5 km/h (2 Bft) 95,74 %
23.01.2016 11:08 6,6 C 7,8 C 5,6 C 99 % 1 lf 1030,5 hPa 0,0 l/m 0 min 0 min 118 W/m 10,5 km/h (2 Bft) 95,74 %
23.01.2016 11:10 6,6 C 7,8 C 5,6 C 99 % 0 lf 1030,5 hPa 0,0 l/m 0 min 0 min 116 W/m 10,5 km/h (2 Bft) 93,62 %
23.01.2016 11:12 6,6 C 7,8 C 5,6 C 99 % 0 lf 1030,6 hPa 0,0 l/m 0 min 0 min 104 W/m 16,7 km/h (3 Bft) 95,74 %
23.01.2016 11:14 6,7 C 7,8 C 5,6 C 99 % 0 lf 1030,6 hPa 0,0 l/m 0 min 0 min 112 W/m 14,6 km/h (3 Bft) 95,65 %
23.01.2016 11:16 6,7 C 7,8 C 5,6 C 99 % 0 lf 1030,6 hPa 0,0 l/m 0 min 0 min 93 W/m 12,6 km/h (3 Bft) 89,36 %
23.01.2016 11:18 6,7 C 7,8 C 5,6 C 99 % 0 lf 1030,6 hPa 0,0 l/m 0 min 0 min 81 W/m 14,6 km/h (3 Bft) 95,74 %
23.01.2016 11:20 6,7 C 7,8 C 5,6 C 99 % 0 lf 1030,7 hPa 0,0 l/m 0 min 0 min 85 W/m 8,4 km/h (2 Bft) 91,49 %
23.01.2016 11:22 6,7 C 7,8 C 5,6 C 99 % 0 lf 1030,8 hPa 0,0 l/m 0 min 0 min 76 W/m 12,6 km/h (3 Bft) 95,74 %
23.01.2016 11:24 6,7 C 7,8 C 5,6 C 99 % 0 lf 1030,7 hPa 0,0 l/m 0 min 0 min 80 W/m 14,6 km/h (3 Bft) 93,62 %
23.01.2016 11:26 6,7 C 7,8 C 5,6 C 99 % 0 lf 1030,7 hPa 0,0 l/m 0 min 0 min 78 W/m 8,4 km/h (2 Bft) 93,48 %
23.01.2016 11:28 6,8 C 7,8 C 5,6 C 99 % 0 lf 1030,7 hPa 0,0 l/m 0 min 0 min 94 W/m 14,6 km/h (3 Bft) 93,62 %
23.01.2016 11:30 6,8 C 7,8 C 5,6 C 99 % 0 lf 1030,7 hPa 0,0 l/m 0 min 0 min 98 W/m 12,6 km/h (3 Bft) 93,62 %
23.01.2016 11:32 6,8 C 7,8 C 5,6 C 99 % 0 lf 1030,6 hPa 0,0 l/m 0 min 0 min 99 W/m 18,8 km/h (3 Bft) 93,62 %
23.01.2016 11:34 6,8 C 7,8 C 5,6 C 99 % 0 lf 1030,7 hPa 0,0 l/m 0 min 0 min 97 W/m 16,7 km/h (3 Bft) 95,74 %
23.01.2016 11:36 6,8 C 7,8 C 5,6 C 99 % 0 lf 1030,8 hPa 0,0 l/m 0 min 0 min 84 W/m 18,8 km/h (3 Bft) 93,62 %
23.01.2016 11:38 6,8 C 7,8 C 5,6 C 99 % 0 lf 1031,0 hPa 0,0 l/m 0 min 0 min 83 W/m 18,8 km/h (3 Bft) 95,65 %
23.01.2016 11:40 6,8 C 7,8 C 5,6 C 99 % 0 lf 1031,0 hPa 0,0 l/m 0 min 0 min 86 W/m 16,7 km/h (3 Bft) 95,74 %
23.01.2016 11:42 6,7 C 7,8 C 5,6 C 99 % 0 lf 1031,0 hPa 0,0 l/m 0 min 0 min 73 W/m 14,6 km/h (3 Bft) 93,62 %
23.01.2016 11:44 6,8 C 7,8 C 5,6 C 99 % 0 lf 1031,1 hPa 0,0 l/m 0 min 0 min 72 W/m 12,6 km/h (3 Bft) 100,00 %
23.01.2016 11:46 6,8 C 7,8 C 5,6 C 99 % 0 lf 1031,1 hPa 0,0 l/m 0 min 0 min 68 W/m 12,6 km/h (3 Bft) 97,87 %
23.01.2016 11:48 6,8 C 7,8 C 5,6 C 99 % 0 lf 1031,1 hPa 0,0 l/m 0 min 0 min 71 W/m 12,6 km/h (3 Bft) 97,87 %
23.01.2016 11:50 6,7 C 7,8 C 5,6 C 99 % 0 lf 1031,0 hPa 0,0 l/m 0 min 0 min 69 W/m 20,9 km/h (4 Bft) 95,65 %
23.01.2016 11:52 6,8 C 7,8 C 5,6 C 99 % 0 lf 1031,1 hPa 0,0 l/m 0 min 0 min 70 W/m 18,8 km/h (3 Bft) 97,87 %
23.01.2016 11:54 6,7 C 7,8 C 5,6 C 99 % 0 lf 1031,1 hPa 0,0 l/m 0 min 0 min 68 W/m 18,8 km/h (3 Bft) 95,74 %
23.01.2016 11:56 6,7 C 7,8 C 5,6 C 99 % 0 lf 1031,1 hPa 0,0 l/m 0 min 0 min 73 W/m 16,7 km/h (3 Bft) 95,74 %
23.01.2016 11:58 6,7 C 7,8 C 5,6 C 99 % 0 lf 1031,1 hPa 0,0 l/m 0 min 0 min 77 W/m 12,6 km/h (3 Bft) 95,74 %
23.01.2016 12:00 6,7 C 7,8 C 5,6 C 99 % 0 lf 1031,2 hPa 0,0 l/m 0 min 0 min 73 W/m 10,5 km/h (2 Bft) 97,83 %
23.01.2016 12:02 6,7 C 7,8 C 5,6 C 99 % 0 lf 1031,2 hPa 0,0 l/m 0 min 0 min 75 W/m 14,6 km/h (3 Bft) 97,87 %
23.01.2016 12:04 6,7 C 7,8 C 5,6 C 99 % 0 lf 1031,3 hPa 0,0 l/m 0 min 0 min 81 W/m 18,8 km/h (3 Bft) 100,00 %
23.01.2016 12:06 6,7 C 7,8 C 5,6 C 99 % 0 lf 1031,2 hPa 0,0 l/m 0 min 0 min 70 W/m 18,8 km/h (3 Bft) 97,87 %
23.01.2016 12:08 6,7 C 7,8 C 5,6 C 99 % 0 lf 1031,3 hPa 0,0 l/m 0 min 0 min 69 W/m 12,6 km/h (3 Bft) 100,00 %
23.01.2016 12:10 6,7 C 7,8 C 5,6 C 99 % 0 lf 1031,3 hPa 0,0 l/m 0 min 0 min 68 W/m 18,8 km/h (3 Bft) 95,74 %
23.01.2016 12:12 6,7 C 7,8 C 5,6 C 99 % 0 lf 1031,3 hPa 0,0 l/m 0 min 0 min 63 W/m 18,8 km/h (3 Bft) 100,00 %
23.01.2016 12:14 6,7 C 7,8 C 5,6 C 99 % 0 lf 1031,2 hPa 0,0 l/m 0 min 0 min 68 W/m 18,8 km/h (3 Bft) 97,87 %
23.01.2016 12:16 6,7 C 7,8 C 5,6 C 99 % 0 lf 1031,2 hPa 0,0 l/m 0 min 0 min 68 W/m 18,8 km/h (3 Bft) 97,87 %
23.01.2016 12:18 6,7 C 7,8 C 5,6 C 99 % 0 lf 1031,2 hPa 0,0 l/m 0 min 0 min 69 W/m 18,8 km/h (3 Bft) 100,00 %
23.01.2016 12:20 6,7 C 7,8 C 5,6 C 99 % 0 lf 1031,2 hPa 0,0 l/m 0 min 0 min 68 W/m 14,6 km/h (3 Bft) 100,00 %
23.01.2016 12:22 6,7 C 7,8 C 5,6 C 99 % 0 lf 1031,2 hPa 0,0 l/m 0 min 0 min 65 W/m 12,6 km/h (3 Bft) 100,00 %
23.01.2016 12:24 6,7 C 7,8 C 5,6 C 99 % 0 lf 1031,3 hPa 0,0 l/m 0 min 0 min 69 W/m 14,6 km/h (3 Bft) 93,48 %
23.01.2016 12:26 6,7 C 7,8 C 5,6 C 99 % 0 lf 1031,4 hPa 0,0 l/m 0 min 0 min 63 W/m 20,9 km/h (4 Bft) 100,00 %
23.01.2016 12:28 6,7 C 7,2 C 5,6 C 99 % 1 lf 1031,4 hPa 0,0 l/m 0 min 0 min 55 W/m 16,7 km/h (3 Bft) 100,00 %
23.01.2016 12:30 6,7 C 7,2 C 5,6 C 99 % 1 lf 1031,4 hPa 0,0 l/m 0 min 0 min 53 W/m 18,8 km/h (3 Bft) 100,00 %
23.01.2016 12:32 6,7 C 7,2 C 5,6 C 99 % 1 lf 1031,5 hPa 0,0 l/m 0 min 0 min 59 W/m 16,7 km/h (3 Bft) 95,74 %
23.01.2016 12:34 6,7 C 7,2 C 5,6 C 99 % 1 lf 1031,4 hPa 0,0 l/m 0 min 0 min 56 W/m 16,7 km/h (3 Bft) 97,87 %
23.01.2016 12:36 6,7 C 7,2 C 5,6 C 99 % 1 lf 1031,5 hPa 0,0 l/m 0 min 0 min 52 W/m 16,7 km/h (3 Bft) 97,83 %
23.01.2016 12:38 6,7 C 7,2 C 5,6 C 99 % 1 lf 1031,5 hPa 0,0 l/m 0 min 0 min 49 W/m 16,7 km/h (3 Bft) 95,74 %
23.01.2016 12:40 6,7 C 7,2 C 5,6 C 99 % 1 lf 1031,5 hPa 0,0 l/m 0 min 0 min 53 W/m 14,6 km/h (3 Bft) 100,00 %
23.01.2016 12:42 6,7 C 7,2 C 5,6 C 99 % 1 lf 1031,5 hPa 0,0 l/m 0 min 0 min 52 W/m 12,6 km/h (3 Bft) 97,87 %
23.01.2016 12:44 6,7 C 7,2 C 5,6 C 99 % 1 lf 1031,5 hPa 0,0 l/m 0 min 0 min 54 W/m 16,7 km/h (3 Bft) 100,00 %
23.01.2016 12:46 6,7 C 7,2 C 5,6 C 99 % 1 lf 1031,5 hPa 0,0 l/m 0 min 0 min 53 W/m 20,9 km/h (4 Bft) 97,87 %
23.01.2016 12:48 6,7 C 7,2 C 5,6 C 99 % 1 lf 1031,5 hPa 0,0 l/m 0 min 0 min 54 W/m 23,0 km/h (4 Bft) 100,00 %
23.01.2016 12:50 6,7 C 7,2 C 5,6 C 99 % 1 lf 1031,5 hPa 0,0 l/m 0 min 0 min 51 W/m 14,6 km/h (3 Bft) 100,00 %
23.01.2016 12:52 6,7 C 7,2 C 5,6 C 99 % 1 lf 1031,5 hPa 0,0 l/m 0 min 0 min 53 W/m 10,5 km/h (2 Bft) 100,00 %
23.01.2016 12:54 6,7 C 7,2 C 5,6 C 99 % 1 lf 1031,6 hPa 0,0 l/m 0 min 0 min 58 W/m 14,6 km/h (3 Bft) 100,00 %
23.01.2016 12:56 6,7 C 7,2 C 5,6 C 99 % 1 lf 1031,6 hPa 0,0 l/m 0 min 0 min 54 W/m 12,6 km/h (3 Bft) 97,87 %
23.01.2016 12:58 6,7 C 7,2 C 5,6 C 99 % 1 lf 1031,5 hPa 0,0 l/m 0 min 0 min 56 W/m 18,8 km/h (3 Bft) 100,00 %
23.01.2016 13:00 6,7 C 7,2 C 5,6 C 99 % 1 lf 1031,5 hPa 0,0 l/m 0 min 0 min 59 W/m 20,9 km/h (4 Bft) 97,83 %
23.01.2016 13:02 6,7 C 7,2 C 5,6 C 99 % 1 lf 1031,5 hPa 0,0 l/m 0 min 0 min 62 W/m 23,0 km/h (4 Bft) 100,00 %
23.01.2016 13:04 6,7 C 7,2 C 5,6 C 99 % 0 lf 1031,5 hPa 0,0 l/m 0 min 0 min 73 W/m 14,6 km/h (3 Bft) 97,87 %
23.01.2016 13:06 6,7 C 7,8 C 5,6 C 99 % 0 lf 1031,5 hPa 0,0 l/m 0 min 0 min 85 W/m 16,7 km/h (3 Bft) 100,00 %
23.01.2016 13:08 6,7 C 7,8 C 5,6 C 99 % 0 lf 1031,5 hPa 0,0 l/m 0 min 0 min 77 W/m 12,6 km/h (3 Bft) 91,49 %
23.01.2016 13:10 6,7 C 7,8 C 5,6 C 99 % 0 lf 1031,5 hPa 0,0 l/m 0 min 0 min 80 W/m 16,7 km/h (3 Bft) 97,83 %
23.01.2016 13:12 6,7 C 7,8 C 6,1 C 99 % 0 lf 1031,7 hPa 0,0 l/m 0 min 0 min 91 W/m 12,6 km/h (3 Bft) 97,87 %
23.01.2016 13:14 6,7 C 7,8 C 6,1 C 99 % 0 lf 1031,7 hPa 0,0 l/m 0 min 0 min 93 W/m 16,7 km/h (3 Bft) 97,87 %
23.01.2016 13:16 6,7 C 7,8 C 6,1 C 99 % 0 lf 1031,8 hPa 0,0 l/m 0 min 0 min 84 W/m 14,6 km/h (3 Bft) 93,62 %
23.01.2016 13:18 6,8 C 7,8 C 6,1 C 99 % 0 lf 1031,8 hPa 0,0 l/m 0 min 0 min 69 W/m 10,5 km/h (2 Bft) 97,87 %
23.01.2016 13:20 6,8 C 7,8 C 6,1 C 99 % 0 lf 1031,9 hPa 0,0 l/m 0 min 0 min 58 W/m 14,6 km/h (3 Bft) 95,74 %
23.01.2016 13:22 6,8 C 7,8 C 6,1 C 99 % 0 lf 1031,9 hPa 0,0 l/m 0 min 0 min 53 W/m 16,7 km/h (3 Bft) 97,87 %
23.01.2016 13:24 6,8 C 7,8 C 5,6 C 99 % 1 lf 1031,9 hPa 0,0 l/m 0 min 0 min 58 W/m 16,7 km/h (3 Bft) 95,65 %
23.01.2016 13:26 6,8 C 7,8 C 5,6 C 99 % 1 lf 1031,8 hPa 0,0 l/m 0 min 0 min 60 W/m 12,6 km/h (3 Bft) 93,62 %
23.01.2016 13:28 6,8 C 7,8 C 5,6 C 99 % 1 lf 1031,9 hPa 0,0 l/m 0 min 0 min 61 W/m 18,8 km/h (3 Bft) 93,62 %
23.01.2016 13:30 6,8 C 7,8 C 5,6 C 99 % 1 lf 1031,9 hPa 0,0 l/m 0 min 0 min 54 W/m 18,8 km/h (3 Bft) 95,74 %
23.01.2016 13:32 6,8 C 7,2 C 5,6 C 99 % 1 lf 1031,9 hPa 0,0 l/m 0 min 0 min 50 W/m 14,6 km/h (3 Bft) 87,23 %
23.01.2016 13:34 6,8 C 7,2 C 5,6 C 99 % 1 lf 1031,9 hPa 0,0 l/m 0 min 0 min 53 W/m 16,7 km/h (3 Bft) 91,30 %
23.01.2016 13:36 6,8 C 7,2 C 5,6 C 99 % 1 lf 1031,9 hPa 0,0 l/m 0 min 0 min 58 W/m 18,8 km/h (3 Bft) 91,49 %
23.01.2016 13:38 6,8 C 7,2 C 5,6 C 99 % 1 lf 1031,9 hPa 0,0 l/m 0 min 0 min 60 W/m 18,8 km/h (3 Bft) 91,49 %
23.01.2016 13:40 6,8 C 7,2 C 5,6 C 99 % 1 lf 1031,9 hPa 0,0 l/m 0 min 0 min 58 W/m 25,1 km/h (4 Bft) 95,74 %
23.01.2016 13:42 6,8 C 7,2 C 5,6 C 99 % 1 lf 1031,8 hPa 0,0 l/m 0 min 0 min 58 W/m 25,1 km/h (4 Bft) 91,49 %
23.01.2016 13:44 6,8 C 7,2 C 5,6 C 99 % 1 lf 1031,8 hPa 0,0 l/m 0 min 0 min 60 W/m 18,8 km/h (3 Bft) 93,62 %
23.01.2016 13:46 6,8 C 7,2 C 5,6 C 99 % 1 lf 1031,8 hPa 0,0 l/m 0 min 0 min 57 W/m 23,0 km/h (4 Bft) 91,49 %
23.01.2016 13:48 6,8 C 7,2 C 5,6 C 99 % 1 lf 1031,8 hPa 0,0 l/m 0 min 0 min 55 W/m 14,6 km/h (3 Bft) 89,13 %
23.01.2016 13:50 6,8 C 7,8 C 5,6 C 99 % 1 lf 1031,6 hPa 0,0 l/m 0 min 0 min 54 W/m 12,6 km/h (3 Bft) 91,49 %
23.01.2016 13:52 6,8 C 7,2 C 5,6 C 99 % 1 lf 1031,6 hPa 0,0 l/m 0 min 0 min 57 W/m 14,6 km/h (3 Bft) 89,36 %
23.01.2016 13:54 6,8 C 7,2 C 5,6 C 99 % 1 lf 1031,6 hPa 0,0 l/m 0 min 0 min 54 W/m 12,6 km/h (3 Bft) 91,49 %
23.01.2016 13:56 6,8 C 7,2 C 5,6 C 99 % 1 lf 1031,6 hPa 0,0 l/m 0 min 0 min 54 W/m 16,7 km/h (3 Bft) 91,49 %
23.01.2016 13:58 6,8 C 7,8 C 5,6 C 99 % 1 lf 1031,7 hPa 0,0 l/m 0 min 0 min 54 W/m 12,6 km/h (3 Bft) 93,48 %
23.01.2016 14:00 6,8 C 7,8 C 5,6 C 99 % 1 lf 1031,7 hPa 0,0 l/m 0 min 0 min 54 W/m 14,6 km/h (3 Bft) 93,62 %
23.01.2016 14:02 6,8 C 7,8 C 6,1 C 99 % 1 lf 1031,6 hPa 0,0 l/m 0 min 0 min 55 W/m 14,6 km/h (3 Bft) 93,62 %
23.01.2016 14:04 6,8 C 7,2 C 5,6 C 99 % 1 lf 1031,8 hPa 0,0 l/m 0 min 0 min 54 W/m 16,7 km/h (3 Bft) 91,49 %
23.01.2016 14:06 6,8 C 7,2 C 5,6 C 99 % 1 lf 1031,8 hPa 0,0 l/m 0 min 0 min 46 W/m 16,7 km/h (3 Bft) 91,49 %
23.01.2016 14:08 6,8 C 7,2 C 5,6 C 99 % 1 lf 1031,8 hPa 0,0 l/m 0 min 0 min 44 W/m 10,5 km/h (2 Bft) 91,30 %
23.01.2016 14:10 6,8 C 7,2 C 5,6 C 99 % 1 lf 1031,8 hPa 0,0 l/m 0 min 0 min 43 W/m 10,5 km/h (2 Bft) 93,62 %
23.01.2016 14:12 6,8 C 7,2 C 5,6 C 99 % 1 lf 1031,8 hPa 0,0 l/m 0 min 0 min 43 W/m 12,6 km/h (3 Bft) 91,49 %
23.01.2016 14:14 6,8 C 7,2 C 5,6 C 99 % 1 lf 1031,8 hPa 0,0 l/m 0 min 0 min 44 W/m 10,5 km/h (2 Bft) 93,62 %
23.01.2016 14:16 6,8 C 7,2 C 5,6 C 99 % 1 lf 1031,8 hPa 0,0 l/m 0 min 0 min 41 W/m 10,5 km/h (2 Bft) 95,74 %
23.01.2016 14:18 6,8 C 7,2 C 5,6 C 99 % 1 lf 1031,8 hPa 0,0 l/m 0 min 0 min 41 W/m 12,6 km/h (3 Bft) 95,74 %
23.01.2016 14:20 6,8 C 7,2 C 5,6 C 99 % 1 lf 1031,8 hPa 0,0 l/m 0 min 0 min 38 W/m 16,7 km/h (3 Bft) 97,87 %
23.01.2016 14:22 6,8 C 7,2 C 5,6 C 99 % 1 lf 1031,9 hPa 0,0 l/m 0 min 0 min 40 W/m 18,8 km/h (3 Bft) 95,65 %
23.01.2016 14:24 6,9 C 7,2 C 5,6 C 99 % 1 lf 1031,9 hPa 0,0 l/m 0 min 0 min 38 W/m 14,6 km/h (3 Bft) 92,00 %
23.01.2016 14:26 6,8 C 7,2 C 5,6 C 99 % 1 lf 1032,0 hPa 0,0 l/m 0 min 0 min 40 W/m 12,6 km/h (3 Bft) 97,87 %
23.01.2016 14:28 6,8 C 7,2 C 5,6 C 99 % 1 lf 1032,0 hPa 0,0 l/m 0 min 0 min 41 W/m 12,6 km/h (3 Bft) 97,87 %
23.01.2016 14:30 6,8 C 7,2 C 5,6 C 99 % 1 lf 1031,9 hPa 0,0 l/m 0 min 0 min 41 W/m 10,5 km/h (2 Bft) 97,87 %
23.01.2016 14:32 6,8 C 7,2 C 5,6 C 99 % 1 lf 1031,9 hPa 0,0 l/m 0 min 0 min 47 W/m 14,6 km/h (3 Bft) 97,83 %
23.01.2016 14:34 6,8 C 7,2 C 5,6 C 99 % 1 lf 1031,9 hPa 0,0 l/m 0 min 0 min 46 W/m 16,7 km/h (3 Bft) 89,36 %
23.01.2016 14:36 6,9 C 7,2 C 5,6 C 99 % 1 lf 1032,0 hPa 0,0 l/m 0 min 0 min 42 W/m 16,7 km/h (3 Bft) 95,74 %
23.01.2016 14:38 6,8 C 7,2 C 5,6 C 99 % 1 lf 1032,0 hPa 0,0 l/m 0 min 0 min 41 W/m 12,6 km/h (3 Bft) 97,87 %
23.01.2016 14:40 6,8 C 7,2 C 5,6 C 99 % 1 lf 1032,0 hPa 0,0 l/m 0 min 0 min 43 W/m 16,7 km/h (3 Bft) 100,00 %
23.01.2016 14:42 6,8 C 7,2 C 5,6 C 99 % 1 lf 1032,0 hPa 0,0 l/m 0 min 0 min 50 W/m 16,7 km/h (3 Bft) 95,74 %
23.01.2016 14:44 6,8 C 7,2 C 5,6 C 99 % 1 lf 1032,1 hPa 0,0 l/m 0 min 0 min 57 W/m 16,7 km/h (3 Bft) 97,83 %
23.01.2016 14:46 6,8 C 7,2 C 5,6 C 99 % 1 lf 1032,1 hPa 0,0 l/m 0 min 0 min 56 W/m 14,6 km/h (3 Bft) 100,00 %
23.01.2016 14:48 6,9 C 7,2 C 5,6 C 99 % 1 lf 1032,2 hPa 0,0 l/m 0 min 0 min 54 W/m 25,1 km/h (4 Bft) 100,00 %
23.01.2016 14:50 6,8 C 7,2 C 5,6 C 99 % 1 lf 1032,2 hPa 0,0 l/m 0 min 0 min 52 W/m 16,7 km/h (3 Bft) 97,87 %
23.01.2016 14:52 6,8 C 7,2 C 6,1 C 99 % 1 lf 1032,3 hPa 0,0 l/m 0 min 0 min 59 W/m 25,1 km/h (4 Bft) 100,00 %
23.01.2016 14:54 6,8 C 7,8 C 6,1 C 99 % 1 lf 1032,3 hPa 0,0 l/m 0 min 0 min 55 W/m 20,9 km/h (4 Bft) 100,00 %
23.01.2016 14:56 6,8 C 7,8 C 6,1 C 99 % 1 lf 1032,3 hPa 0,0 l/m 0 min 0 min 50 W/m 16,7 km/h (3 Bft) 100,00 %
23.01.2016 14:58 6,9 C 7,8 C 6,1 C 99 % 1 lf 1032,4 hPa 0,0 l/m 0 min 0 min 48 W/m 25,1 km/h (4 Bft) 97,87 %
23.01.2016 15:00 6,9 C 7,8 C 6,1 C 99 % 1 lf 1032,4 hPa 0,0 l/m 0 min 0 min 47 W/m 16,7 km/h (3 Bft) 97,87 %
23.01.2016 15:02 6,9 C 7,8 C 6,1 C 99 % 1 lf 1032,4 hPa 0,0 l/m 0 min 0 min 46 W/m 18,8 km/h (3 Bft) 93,62 %
23.01.2016 15:04 6,9 C 7,8 C 6,1 C 99 % 1 lf 1032,4 hPa 0,0 l/m 0 min 0 min 47 W/m 18,8 km/h (3 Bft) 100,00 %
23.01.2016 15:06 6,9 C 7,8 C 6,1 C 99 % 1 lf 1032,4 hPa 0,0 l/m 0 min 0 min 44 W/m 16,7 km/h (3 Bft) 100,00 %
23.01.2016 15:08 6,9 C 7,8 C 6,1 C 99 % 1 lf 1032,4 hPa 0,0 l/m 0 min 0 min 44 W/m 18,8 km/h (3 Bft) 100,00 %
23.01.2016 15:10 6,9 C 7,8 C 6,1 C 99 % 1 lf 1032,5 hPa 0,0 l/m 0 min 0 min 38 W/m 16,7 km/h (3 Bft) 100,00 %
23.01.2016 15:12 6,9 C 7,8 C 6,1 C 98 % 1 lf 1032,5 hPa 0,0 l/m 0 min 0 min 34 W/m 20,9 km/h (4 Bft) 97,87 %
23.01.2016 15:14 6,9 C 7,2 C 6,1 C 98 % 1 lf 1032,5 hPa 0,0 l/m 0 min 0 min 34 W/m 23,0 km/h (4 Bft) 95,74 %
23.01.2016 15:16 6,9 C 7,2 C 6,1 C 98 % 1 lf 1032,6 hPa 0,0 l/m 0 min 0 min 34 W/m 18,8 km/h (3 Bft) 97,87 %
23.01.2016 15:18 6,9 C 7,2 C 5,6 C 98 % 1 lf 1032,6 hPa 0,0 l/m 0 min 0 min 33 W/m 20,9 km/h (4 Bft) 97,87 %
23.01.2016 15:20 6,9 C 7,2 C 5,6 C 98 % 1 lf 1032,6 hPa 0,0 l/m 0 min 0 min 32 W/m 18,8 km/h (3 Bft) 97,83 %
23.01.2016 15:22 6,9 C 7,2 C 5,6 C 98 % 1 lf 1032,6 hPa 0,0 l/m 0 min 0 min 28 W/m 27,2 km/h (4 Bft) 93,62 %
23.01.2016 15:24 6,9 C 7,2 C 5,6 C 99 % 1 lf 1032,6 hPa 0,0 l/m 0 min 0 min 25 W/m 25,1 km/h (4 Bft) 97,87 %
23.01.2016 15:26 6,9 C 7,2 C 5,6 C 99 % 1 lf 1032,6 hPa 0,0 l/m 0 min 0 min 26 W/m 14,6 km/h (3 Bft) 97,87 %
23.01.2016 15:28 6,9 C 7,2 C 5,6 C 98 % 1 lf 1032,6 hPa 0,0 l/m 0 min 0 min 29 W/m 20,9 km/h (4 Bft) 97,87 %
23.01.2016 15:30 6,9 C 7,2 C 5,6 C 99 % 1 lf 1032,5 hPa 0,0 l/m 0 min 0 min 31 W/m 16,7 km/h (3 Bft) 95,65 %
23.01.2016 15:32 6,9 C 7,2 C 5,6 C 98 % 1 lf 1032,5 hPa 0,0 l/m 0 min 0 min 32 W/m 12,6 km/h (3 Bft) 95,74 %
23.01.2016 15:34 6,9 C 7,2 C 5,6 C 99 % 1 lf 1032,4 hPa 0,0 l/m 0 min 0 min 35 W/m 10,5 km/h (2 Bft) 97,87 %
23.01.2016 15:36 6,9 C 7,2 C 5,6 C 99 % 1 lf 1032,4 hPa 0,0 l/m 0 min 0 min 25 W/m 16,7 km/h (3 Bft) 95,74 %
23.01.2016 15:38 6,9 C 7,2 C 5,6 C 99 % 1 lf 1032,4 hPa 0,0 l/m 0 min 0 min 20 W/m 14,6 km/h (3 Bft) 95,74 %
23.01.2016 15:40 6,9 C 7,2 C 5,6 C 98 % 1 lf 1032,5 hPa 0,0 l/m 0 min 0 min 23 W/m 10,5 km/h (2 Bft) 95,74 %
23.01.2016 15:42 6,9 C 7,2 C 5,6 C 99 % 1 lf 1032,5 hPa 0,0 l/m 0 min 0 min 31 W/m 16,7 km/h (3 Bft) 95,65 %
23.01.2016 15:44 6,9 C 7,2 C 5,6 C 98 % 1 lf 1032,5 hPa 0,0 l/m 0 min 0 min 30 W/m 6,3 km/h (2 Bft) 95,74 %
23.01.2016 15:46 6,8 C 7,2 C 5,6 C 98 % 1 lf 1032,6 hPa 0,0 l/m 0 min 0 min 31 W/m 14,6 km/h (3 Bft) 97,87 %
23.01.2016 15:48 6,8 C 7,2 C 5,6 C 98 % 1 lf 1032,6 hPa 0,0 l/m 0 min 0 min 33 W/m 16,7 km/h (3 Bft) 100,00 %
23.01.2016 15:50 6,8 C 7,2 C 5,6 C 98 % 0 lf 1032,5 hPa 0,0 l/m 0 min 0 min 39 W/m 12,6 km/h (3 Bft) 97,87 %
23.01.2016 15:52 6,8 C 7,2 C 5,6 C 98 % 0 lf 1032,6 hPa 0,0 l/m 0 min 0 min 38 W/m 16,7 km/h (3 Bft) 100,00 %
23.01.2016 15:54 6,8 C 7,2 C 5,6 C 98 % 0 lf 1032,5 hPa 0,0 l/m 0 min 0 min 36 W/m 18,8 km/h (3 Bft) 97,83 %
23.01.2016 15:56 6,8 C 7,2 C 5,6 C 98 % 0 lf 1032,6 hPa 0,0 l/m 0 min 0 min 34 W/m 10,5 km/h (2 Bft) 100,00 %
23.01.2016 15:58 6,8 C 7,2 C 5,6 C 98 % 0 lf 1032,5 hPa 0,0 l/m 0 min 0 min 33 W/m 16,7 km/h (3 Bft) 100,00 %
23.01.2016 16:00 6,8 C 7,2 C 5,6 C 98 % 0 lf 1032,5 hPa 0,0 l/m 0 min 0 min 35 W/m 16,7 km/h (3 Bft) 97,87 %
23.01.2016 16:02 6,8 C 7,2 C 5,6 C 98 % 0 lf 1032,5 hPa 0,0 l/m 0 min 0 min 28 W/m 20,9 km/h (4 Bft) 93,62 %
23.01.2016 16:04 6,8 C 7,2 C 5,6 C 98 % 0 lf 1032,7 hPa 0,0 l/m 0 min 0 min 27 W/m 18,8 km/h (3 Bft) 97,87 %
23.01.2016 16:06 6,9 C 7,2 C 5,6 C 98 % 0 lf 1032,6 hPa 0,0 l/m 0 min 0 min 29 W/m 16,7 km/h (3 Bft) 97,83 %
23.01.2016 16:08 6,8 C 7,2 C 5,6 C 98 % 0 lf 1032,6 hPa 0,0 l/m 0 min 0 min 28 W/m 18,8 km/h (3 Bft) 97,87 %
23.01.2016 16:10 6,9 C 7,2 C 5,6 C 98 % 0 lf 1032,7 hPa 0,0 l/m 0 min 0 min 31 W/m 12,6 km/h (3 Bft) 97,87 %
23.01.2016 16:12 6,9 C 7,2 C 5,6 C 98 % 0 lf 1032,7 hPa 0,0 l/m 0 min 0 min 37 W/m 14,6 km/h (3 Bft) 95,74 %
23.01.2016 16:14 6,9 C 7,2 C 5,6 C 98 % 0 lf 1032,8 hPa 0,0 l/m 0 min 0 min 38 W/m 14,6 km/h (3 Bft) 97,87 %
23.01.2016 16:16 6,9 C 7,2 C 5,6 C 98 % 0 lf 1032,8 hPa 0,0 l/m 0 min 0 min 33 W/m 14,6 km/h (3 Bft) 97,83 %
23.01.2016 16:18 6,9 C 7,2 C 5,6 C 98 % 1 lf 1032,8 hPa 0,0 l/m 0 min 0 min 30 W/m 8,4 km/h (2 Bft) 91,49 %
23.01.2016 16:20 6,9 C 7,2 C 5,6 C 98 % 1 lf 1032,8 hPa 0,0 l/m 0 min 0 min 26 W/m 12,6 km/h (3 Bft) 97,87 %
23.01.2016 16:22 6,9 C 7,2 C 5,6 C 98 % 1 lf 1032,9 hPa 0,0 l/m 0 min 0 min 24 W/m 8,4 km/h (2 Bft) 95,74 %
23.01.2016 16:24 6,9 C 7,2 C 5,6 C 98 % 1 lf 1033,0 hPa 0,0 l/m 0 min 0 min 18 W/m 12,6 km/h (3 Bft) 97,87 %
23.01.2016 16:26 6,9 C 7,2 C 5,6 C 98 % 1 lf 1033,1 hPa 0,0 l/m 0 min 0 min 17 W/m 12,6 km/h (3 Bft) 95,74 %
23.01.2016 16:28 6,9 C 7,2 C 5,6 C 98 % 1 lf 1033,1 hPa 0,0 l/m 0 min 0 min 16 W/m 8,4 km/h (2 Bft) 97,83 %
23.01.2016 16:30 6,9 C 7,2 C 5,6 C 98 % 1 lf 1033,0 hPa 0,0 l/m 0 min 0 min 14 W/m 12,6 km/h (3 Bft) 97,87 %
23.01.2016 16:32 6,9 C 7,2 C 5,6 C 98 % 1 lf 1033,1 hPa 0,0 l/m 0 min 0 min 15 W/m 12,6 km/h (3 Bft) 97,87 %
23.01.2016 16:34 6,9 C 7,2 C 5,6 C 98 % 1 lf 1033,1 hPa 0,0 l/m 0 min 0 min 14 W/m 12,6 km/h (3 Bft) 97,87 %
23.01.2016 16:36 6,9 C 7,2 C 5,6 C 98 % 1 lf 1033,1 hPa 0,0 l/m 0 min 0 min 12 W/m 10,5 km/h (2 Bft) 100,00 %
23.01.2016 16:38 6,9 C 7,2 C 5,6 C 98 % 1 lf 1033,1 hPa 0,0 l/m 0 min 0 min 12 W/m 10,5 km/h (2 Bft) 97,87 %
23.01.2016 16:40 6,9 C 7,2 C 5,6 C 98 % 1 lf 1033,1 hPa 0,0 l/m 0 min 0 min 12 W/m 10,5 km/h (2 Bft) 95,65 %
23.01.2016 16:42 6,9 C 7,2 C 5,6 C 98 % 1 lf 1033,2 hPa 0,0 l/m 0 min 0 min 11 W/m 14,6 km/h (3 Bft) 91,49 %
23.01.2016 16:44 6,9 C 7,2 C 5,6 C 98 % 1 lf 1033,2 hPa 0,0 l/m 0 min 0 min 11 W/m 8,4 km/h (2 Bft) 97,87 %
23.01.2016 16:46 6,9 C 7,2 C 5,6 C 98 % 1 lf 1033,1 hPa 0,0 l/m 0 min 0 min 9 W/m 10,5 km/h (2 Bft) 95,74 %
23.01.2016 16:48 6,9 C 7,2 C 5,6 C 98 % 1 lf 1033,1 hPa 0,0 l/m 0 min 0 min 9 W/m 10,5 km/h (2 Bft) 95,74 %
23.01.2016 16:50 6,9 C 7,2 C 5,6 C 98 % 1 lf 1033,1 hPa 0,0 l/m 0 min 0 min 7 W/m 8,4 km/h (2 Bft) 91,49 %
23.01.2016 16:52 6,9 C 7,2 C 5,6 C 98 % 1 lf 1033,1 hPa 0,0 l/m 0 min 0 min 7 W/m 10,5 km/h (2 Bft) 95,74 %
23.01.2016 16:54 6,9 C 7,2 C 5,6 C 98 % 1 lf 1033,1 hPa 0,0 l/m 0 min 0 min 7 W/m 12,6 km/h (3 Bft) 95,65 %
23.01.2016 16:56 6,9 C 7,2 C 5,6 C 98 % 1 lf 1033,2 hPa 0,0 l/m 0 min 0 min 6 W/m 10,5 km/h (2 Bft) 95,74 %
23.01.2016 16:58 6,9 C 7,2 C 5,6 C 98 % 1 lf 1033,1 hPa 0,0 l/m 0 min 0 min 5 W/m 8,4 km/h (2 Bft) 95,74 %
23.01.2016 17:00 6,9 C 7,2 C 5,6 C 98 % 1 lf 1033,1 hPa 0,0 l/m 0 min 0 min 5 W/m 2,1 km/h (1 Bft) 91,49 %
23.01.2016 17:02 6,9 C 7,2 C 5,6 C 98 % 1 lf 1033,1 hPa 0,0 l/m 0 min 0 min 5 W/m 4,2 km/h (1 Bft) 97,87 %
23.01.2016 17:04 6,9 C 7,2 C 5,6 C 98 % 1 lf 1033,2 hPa 0,0 l/m 0 min 0 min 5 W/m 4,2 km/h (1 Bft) 89,13 %
23.01.2016 17:06 6,9 C 7,2 C 5,0 C 98 % 1 lf 1033,2 hPa 0,0 l/m 0 min 0 min 0 W/m 4,2 km/h (1 Bft) 93,62 %
23.01.2016 17:08 6,9 C 7,2 C 5,0 C 98 % 1 lf 1033,2 hPa 0,0 l/m 0 min 0 min 0 W/m 4,2 km/h (1 Bft) 91,49 %
23.01.2016 17:10 6,9 C 7,2 C 5,0 C 98 % 1 lf 1033,1 hPa 0,0 l/m 0 min 0 min 0 W/m 8,4 km/h (2 Bft) 95,74 %
23.01.2016 17:12 6,9 C 7,2 C 5,0 C 98 % 1 lf 1033,1 hPa 0,0 l/m 0 min 0 min 0 W/m 8,4 km/h (2 Bft) 97,87 %
23.01.2016 17:14 6,9 C 7,2 C 5,0 C 98 % 1 lf 1033,1 hPa 0,0 l/m 0 min 0 min 0 W/m 8,4 km/h (2 Bft) 95,74 %
23.01.2016 17:16 6,9 C 7,2 C 5,0 C 98 % 1 lf 1033,1 hPa 0,0 l/m 0 min 0 min 0 W/m 8,4 km/h (2 Bft) 97,83 %
23.01.2016 17:18 6,9 C 7,2 C 5,6 C 98 % 1 lf 1033,1 hPa 0,0 l/m 0 min 0 min 0 W/m 6,3 km/h (2 Bft) 93,62 %
23.01.2016 17:20 6,9 C 7,2 C 5,0 C 98 % 1 lf 1033,1 hPa 0,0 l/m 0 min 0 min 0 W/m 6,3 km/h (2 Bft) 91,49 %
23.01.2016 17:22 6,9 C 7,2 C 5,0 C 98 % 1 lf 1033,1 hPa 0,0 l/m 0 min 0 min 0 W/m 4,2 km/h (1 Bft) 91,49 %
23.01.2016 17:24 6,9 C 7,2 C 5,0 C 98 % 1 lf 1033,2 hPa 0,0 l/m 0 min 0 min 0 W/m 8,4 km/h (2 Bft) 93,62 %
23.01.2016 17:26 6,9 C 7,2 C 5,6 C 98 % 1 lf 1033,2 hPa 0,0 l/m 0 min 0 min 0 W/m 8,4 km/h (2 Bft) 93,62 %
23.01.2016 17:28 6,9 C 7,2 C 5,0 C 98 % 1 lf 1033,2 hPa 0,0 l/m 0 min 0 min 0 W/m 2,1 km/h (1 Bft) 91,30 %
23.01.2016 17:30 6,9 C 7,2 C 5,0 C 98 % 1 lf 1033,1 hPa 0,0 l/m 0 min 0 min 0 W/m 6,3 km/h (2 Bft) 95,74 %
23.01.2016 17:32 6,9 C 6,7 C 5,0 C 98 % 1 lf 1033,2 hPa 0,0 l/m 0 min 0 min 0 W/m 6,3 km/h (2 Bft) 93,62 %
23.01.2016 17:34 6,9 C 6,7 C 5,0 C 98 % 1 lf 1033,1 hPa 0,0 l/m 0 min 0 min 0 W/m 8,4 km/h (2 Bft) 95,74 %
23.01.2016 17:36 6,8 C 6,7 C 5,0 C 98 % 1 lf 1033,1 hPa 0,0 l/m 0 min 0 min 0 W/m 14,6 km/h (3 Bft) 93,62 %
23.01.2016 17:38 6,8 C 6,7 C 5,0 C 98 % 1 lf 1033,1 hPa 0,0 l/m 0 min 0 min 0 W/m 12,6 km/h (3 Bft) 95,74 %
23.01.2016 17:40 6,8 C 6,7 C 5,0 C 98 % 1 lf 1033,1 hPa 0,0 l/m 0 min 0 min 0 W/m 12,6 km/h (3 Bft) 95,65 %
23.01.2016 17:42 6,8 C 6,7 C 5,0 C 98 % 1 lf 1033,1 hPa 0,0 l/m 0 min 0 min 0 W/m 16,7 km/h (3 Bft) 97,87 %
23.01.2016 17:44 6,8 C 6,7 C 5,0 C 98 % 1 lf 1033,0 hPa 0,0 l/m 0 min 0 min 0 W/m 12,6 km/h (3 Bft) 93,62 %
23.01.2016 17:46 6,8 C 6,7 C 5,0 C 98 % 1 lf 1033,1 hPa 0,0 l/m 0 min 0 min 0 W/m 14,6 km/h (3 Bft) 97,87 %
23.01.2016 17:48 6,8 C 6,7 C 5,0 C 98 % 1 lf 1033,1 hPa 0,0 l/m 0 min 0 min 0 W/m 10,5 km/h (2 Bft) 97,83 %
23.01.2016 17:50 6,8 C 6,7 C 5,0 C 98 % 1 lf 1033,1 hPa 0,0 l/m 0 min 0 min 0 W/m 12,6 km/h (3 Bft) 93,10 %
23.01.2016 17:52 6,7 C 6,7 C 5,0 C 98 % 1 lf 1033,0 hPa 0,0 l/m 0 min 0 min 0 W/m 8,4 km/h (2 Bft) 94,29 %
23.01.2016 17:54 6,7 C 6,7 C 5,0 C 98 % 2 lf 1032,9 hPa 0,0 l/m 0 min 0 min 0 W/m 10,5 km/h (2 Bft) 98,31 %
23.01.2016 17:56 6,7 C 6,7 C 5,0 C 98 % 2 lf 1032,9 hPa 0,0 l/m 0 min 0 min 0 W/m 10,5 km/h (2 Bft) 97,14 %
23.01.2016 17:58 6,7 C 6,7 C 4,4 C 98 % 2 lf 1032,9 hPa 0,0 l/m 0 min 0 min 0 W/m 8,4 km/h (2 Bft) 98,31 %
23.01.2016 18:00 6,7 C 6,7 C 4,4 C 97 % 2 lf 1032,9 hPa 0,0 l/m 0 min 0 min 0 W/m 8,4 km/h (2 Bft) 95,65 %
23.01.2016 18:02 6,7 C 6,1 C 4,4 C 97 % 2 lf 1033,0 hPa 0,0 l/m 0 min 0 min 0 W/m 8,4 km/h (2 Bft) 100,00 %
23.01.2016 18:04 6,7 C 6,1 C 4,4 C 97 % 2 lf 1033,0 hPa 0,0 l/m 0 min 0 min 0 W/m 8,4 km/h (2 Bft) 95,83 %
23.01.2016 18:06 6,7 C 6,1 C 4,4 C 97 % 2 lf 1033,0 hPa 0,0 l/m 0 min 0 min 0 W/m 8,4 km/h (2 Bft) 95,74 %
23.01.2016 18:08 6,7 C 6,1 C 4,4 C 97 % 2 lf 1033,1 hPa 0,0 l/m 0 min 0 min 0 W/m 8,4 km/h (2 Bft) 95,74 %
23.01.2016 18:10 6,6 C 6,1 C 4,4 C 97 % 2 lf 1033,0 hPa 0,0 l/m 0 min 0 min 0 W/m 6,3 km/h (2 Bft) 95,74 %
23.01.2016 18:12 6,6 C 6,1 C 4,4 C 97 % 3 lf 1033,1 hPa 0,0 l/m 0 min 0 min 0 W/m 8,4 km/h (2 Bft) 95,74 %
23.01.2016 18:14 6,6 C 6,1 C 4,4 C 97 % 3 lf 1033,1 hPa 0,0 l/m 0 min 0 min 0 W/m 6,3 km/h (2 Bft) 95,65 %
23.01.2016 18:16 6,6 C 6,1 C 3,9 C 97 % 3 lf 1033,1 hPa 0,0 l/m 0 min 0 min 0 W/m 8,4 km/h (2 Bft) 97,87 %
23.01.2016 18:18 6,5 C 6,1 C 3,9 C 97 % 3 lf 1033,2 hPa 0,0 l/m 0 min 0 min 0 W/m 6,3 km/h (2 Bft) 95,74 %
23.01.2016 18:20 6,5 C 5,6 C 3,9 C 97 % 3 lf 1033,2 hPa 0,0 l/m 0 min 0 min 0 W/m 4,2 km/h (1 Bft) 95,74 %
23.01.2016 18:22 6,4 C 5,6 C 3,9 C 97 % 3 lf 1033,3 hPa 0,0 l/m 0 min 0 min 0 W/m 6,3 km/h (2 Bft) 97,87 %
23.01.2016 18:24 6,4 C 6,1 C 3,9 C 97 % 3 lf 1033,2 hPa 0,0 l/m 0 min 0 min 0 W/m 8,4 km/h (2 Bft) 97,87 %
23.01.2016 18:26 6,4 C 6,1 C 3,9 C 97 % 3 lf 1033,1 hPa 0,0 l/m 0 min 0 min 0 W/m 6,3 km/h (2 Bft) 97,83 %
23.01.2016 18:28 6,4 C 6,1 C 3,9 C 97 % 3 lf 1033,2 hPa 0,0 l/m 0 min 0 min 0 W/m 6,3 km/h (2 Bft) 100,00 %
23.01.2016 18:30 6,4 C 6,1 C 3,9 C 97 % 4 lf 1033,2 hPa 0,0 l/m 0 min 0 min 0 W/m 6,3 km/h (2 Bft) 97,87 %
23.01.2016 18:32 6,4 C 6,1 C 3,9 C 97 % 4 lf 1033,1 hPa 0,0 l/m 0 min 0 min 0 W/m 6,3 km/h (2 Bft) 95,74 %
23.01.2016 18:34 6,3 C 6,1 C 3,9 C 97 % 4 lf 1033,2 hPa 0,0 l/m 0 min 0 min 0 W/m 6,3 km/h (2 Bft) 97,87 %
23.01.2016 18:36 6,3 C 6,1 C 3,9 C 97 % 4 lf 1033,3 hPa 0,0 l/m 0 min 0 min 0 W/m 6,3 km/h (2 Bft) 97,83 %
23.01.2016 18:38 6,3 C 6,1 C 3,3 C 97 % 4 lf 1033,3 hPa 0,0 l/m 0 min 0 min 0 W/m 4,2 km/h (1 Bft) 97,87 %
23.01.2016 18:40 6,3 C 6,1 C 3,9 C 97 % 4 lf 1033,3 hPa 0,0 l/m 0 min 0 min 0 W/m 6,3 km/h (2 Bft) 100,00 %
23.01.2016 18:42 6,3 C 6,1 C 3,9 C 97 % 4 lf 1033,3 hPa 0,0 l/m 0 min 0 min 0 W/m 8,4 km/h (2 Bft) 100,00 %
23.01.2016 18:44 6,2 C 6,1 C 3,9 C 97 % 4 lf 1033,2 hPa 0,0 l/m 0 min 0 min 0 W/m 8,4 km/h (2 Bft) 100,00 %
23.01.2016 18:46 6,2 C 6,1 C 4,4 C 97 % 4 lf 1033,2 hPa 0,0 l/m 0 min 0 min 0 W/m 8,4 km/h (2 Bft) 93,62 %
23.01.2016 18:48 6,2 C 6,1 C 4,4 C 97 % 4 lf 1033,0 hPa 0,0 l/m 0 min 0 min 0 W/m 12,6 km/h (3 Bft) 97,83 %
23.01.2016 18:50 6,2 C 6,1 C 4,4 C 97 % 3 lf 1033,0 hPa 0,0 l/m 0 min 0 min 0 W/m 6,3 km/h (2 Bft) 100,00 %
23.01.2016 18:52 6,2 C 6,1 C 4,4 C 97 % 3 lf 1033,0 hPa 0,0 l/m 0 min 0 min 0 W/m 10,5 km/h (2 Bft) 100,00 %
23.01.2016 18:54 6,2 C 6,1 C 4,4 C 97 % 3 lf 1033,2 hPa 0,0 l/m 0 min 0 min 0 W/m 10,5 km/h (2 Bft) 91,49 %
23.01.2016 18:56 6,2 C 6,1 C 4,4 C 97 % 3 lf 1033,1 hPa 0,0 l/m 0 min 0 min 0 W/m 8,4 km/h (2 Bft) 93,62 %
23.01.2016 18:58 6,2 C 6,1 C 4,4 C 97 % 3 lf 1033,2 hPa 0,0 l/m 0 min 0 min 0 W/m 10,5 km/h (2 Bft) 95,74 %
23.01.2016 19:00 6,2 C 6,7 C 4,4 C 97 % 3 lf 1033,2 hPa 0,0 l/m 0 min 0 min 0 W/m 8,4 km/h (2 Bft) 95,65 %
23.01.2016 19:02 6,2 C 6,7 C 4,4 C 97 % 2 lf 1033,2 hPa 0,0 l/m 0 min 0 min 0 W/m 8,4 km/h (2 Bft) 93,62 %
23.01.2016 19:04 6,2 C 6,7 C 4,4 C 97 % 2 lf 1033,3 hPa 0,0 l/m 0 min 0 min 0 W/m 10,5 km/h (2 Bft) 91,49 %
23.01.2016 19:06 6,2 C 6,7 C 4,4 C 97 % 2 lf 1033,3 hPa 0,0 l/m 0 min 0 min 0 W/m 10,5 km/h (2 Bft) 93,62 %
23.01.2016 19:08 6,2 C 6,7 C 4,4 C 97 % 1 lf 1033,3 hPa 0,0 l/m 0 min 0 min 0 W/m 8,4 km/h (2 Bft) 95,74 %
23.01.2016 19:10 6,2 C 6,7 C 4,4 C 97 % 1 lf 1033,2 hPa 0,0 l/m 0 min 0 min 0 W/m 8,4 km/h (2 Bft) 95,74 %
23.01.2016 19:12 6,2 C 6,7 C 4,4 C 97 % 1 lf 1033,1 hPa 0,0 l/m 0 min 0 min 0 W/m 8,4 km/h (2 Bft) 91,30 %
23.01.2016 19:14 6,2 C 6,7 C 4,4 C 97 % 1 lf 1033,2 hPa 0,0 l/m 0 min 0 min 0 W/m 8,4 km/h (2 Bft) 95,74 %
23.01.2016 19:16 6,2 C 6,7 C 4,4 C 97 % 1 lf 1033,1 hPa 0,0 l/m 0 min 0 min 0 W/m 8,4 km/h (2 Bft) 93,62 %
23.01.2016 19:18 6,2 C 6,1 C 4,4 C 97 % 1 lf 1033,1 hPa 0,0 l/m 0 min 0 min 0 W/m 6,3 km/h (2 Bft) 95,74 %
23.01.2016 19:20 6,2 C 6,1 C 4,4 C 97 % 1 lf 1033,1 hPa 0,0 l/m 0 min 0 min 0 W/m 8,4 km/h (2 Bft) 95,74 %
23.01.2016 19:22 6,2 C 6,1 C 4,4 C 97 % 1 lf 1033,1 hPa 0,0 l/m 0 min 0 min 0 W/m 8,4 km/h (2 Bft) 95,74 %
23.01.2016 19:24 6,2 C 6,1 C 4,4 C 97 % 1 lf 1033,2 hPa 0,0 l/m 0 min 0 min 0 W/m 10,5 km/h (2 Bft) 91,30 %
23.01.2016 19:26 6,2 C 6,1 C 4,4 C 97 % 1 lf 1033,2 hPa 0,0 l/m 0 min 0 min 0 W/m 6,3 km/h (2 Bft) 97,87 %
23.01.2016 19:28 6,2 C 6,1 C 4,4 C 97 % 1 lf 1033,2 hPa 0,0 l/m 0 min 0 min 0 W/m 8,4 km/h (2 Bft) 95,74 %
23.01.2016 19:30 6,2 C 6,1 C 4,4 C 97 % 1 lf 1033,1 hPa 0,0 l/m 0 min 0 min 0 W/m 8,4 km/h (2 Bft) 97,87 %
23.01.2016 19:32 6,2 C 6,7 C 4,4 C 97 % 1 lf 1033,2 hPa 0,0 l/m 0 min 0 min 0 W/m 8,4 km/h (2 Bft) 95,74 %
23.01.2016 19:34 6,1 C 6,1 C 4,4 C 97 % 1 lf 1033,2 hPa 0,0 l/m 0 min 0 min 0 W/m 6,3 km/h (2 Bft) 95,74 %
23.01.2016 19:36 6,1 C 6,7 C 4,4 C 97 % 1 lf 1033,2 hPa 0,0 l/m 0 min 0 min 0 W/m 8,4 km/h (2 Bft) 95,65 %
23.01.2016 19:38 6,1 C 6,1 C 4,4 C 97 % 1 lf 1033,3 hPa 0,0 l/m 0 min 0 min 0 W/m 8,4 km/h (2 Bft) 97,87 %
23.01.2016 19:40 6,1 C 6,7 C 4,4 C 97 % 1 lf 1033,3 hPa 0,0 l/m 0 min 0 min 0 W/m 8,4 km/h (2 Bft) 95,74 %
23.01.2016 19:42 6,1 C 6,1 C 4,4 C 97 % 1 lf 1033,3 hPa 0,0 l/m 0 min 0 min 0 W/m 10,5 km/h (2 Bft) 100,00 %
23.01.2016 19:44 6,1 C 6,7 C 4,4 C 97 % 1 lf 1033,4 hPa 0,0 l/m 0 min 0 min 0 W/m 6,3 km/h (2 Bft) 97,87 %
23.01.2016 19:46 6,1 C 6,7 C 4,4 C 97 % 1 lf 1033,4 hPa 0,0 l/m 0 min 0 min 0 W/m 8,4 km/h (2 Bft) 95,65 %
23.01.2016 19:48 6,1 C 6,7 C 4,4 C 97 % 1 lf 1033,5 hPa 0,0 l/m 0 min 0 min 0 W/m 6,3 km/h (2 Bft) 100,00 %
23.01.2016 19:50 6,1 C 6,7 C 4,4 C 97 % 1 lf 1033,5 hPa 0,0 l/m 0 min 0 min 0 W/m 6,3 km/h (2 Bft) 97,87 %
23.01.2016 19:52 6,1 C 6,7 C 4,4 C 97 % 1 lf 1033,6 hPa 0,0 l/m 0 min 0 min 0 W/m 6,3 km/h (2 Bft) 95,74 %
23.01.2016 19:54 6,1 C 6,7 C 4,4 C 97 % 1 lf 1033,7 hPa 0,0 l/m 0 min 0 min 0 W/m 8,4 km/h (2 Bft) 93,62 %
23.01.2016 19:56 6,1 C 6,7 C 4,4 C 97 % 1 lf 1033,6 hPa 0,0 l/m 0 min 0 min 0 W/m 6,3 km/h (2 Bft) 95,74 %
23.01.2016 19:58 6,1 C 6,7 C 4,4 C 97 % 1 lf 1033,6 hPa 0,0 l/m 0 min 0 min 0 W/m 6,3 km/h (2 Bft) 95,65 %
23.01.2016 20:00 6,2 C 6,7 C 4,4 C 97 % 1 lf 1033,7 hPa 0,0 l/m 0 min 0 min 0 W/m 10,5 km/h (2 Bft) 97,87 %
23.01.2016 20:02 6,1 C 6,7 C 5,0 C 97 % 1 lf 1033,6 hPa 0,0 l/m 0 min 0 min 0 W/m 8,4 km/h (2 Bft) 97,87 %
23.01.2016 20:04 6,2 C 6,7 C 4,4 C 97 % 1 lf 1033,7 hPa 0,0 l/m 0 min 0 min 0 W/m 10,5 km/h (2 Bft) 95,74 %
23.01.2016 20:06 6,2 C 6,7 C 4,4 C 97 % 1 lf 1033,7 hPa 0,0 l/m 0 min 0 min 0 W/m 6,3 km/h (2 Bft) 95,74 %
23.01.2016 20:08 6,2 C 6,7 C 4,4 C 97 % 1 lf 1033,7 hPa 0,0 l/m 0 min 0 min 0 W/m 8,4 km/h (2 Bft) 97,87 %
23.01.2016 20:10 6,2 C 6,7 C 4,4 C 97 % 1 lf 1033,7 hPa 0,0 l/m 0 min 0 min 0 W/m 6,3 km/h (2 Bft) 97,83 %
23.01.2016 20:12 6,2 C 6,7 C 4,4 C 97 % 1 lf 1033,7 hPa 0,0 l/m 0 min 0 min 0 W/m 10,5 km/h (2 Bft) 95,74 %
23.01.2016 20:14 6,2 C 6,7 C 5,0 C 97 % 1 lf 1033,7 hPa 0,0 l/m 0 min 0 min 0 W/m 6,3 km/h (2 Bft) 97,87 %
23.01.2016 20:16 6,2 C 6,7 C 4,4 C 97 % 1 lf 1033,8 hPa 0,0 l/m 0 min 0 min 0 W/m 6,3 km/h (2 Bft) 95,74 %
23.01.2016 20:18 6,2 C 6,7 C 4,4 C 97 % 1 lf 1033,9 hPa 0,0 l/m 0 min 0 min 0 W/m 12,6 km/h (3 Bft) 95,74 %
23.01.2016 20:20 6,2 C 6,7 C 5,0 C 97 % 1 lf 1033,8 hPa 0,0 l/m 0 min 0 min 0 W/m 10,5 km/h (2 Bft) 97,87 %
23.01.2016 20:22 6,2 C 6,7 C 5,0 C 97 % 1 lf 1033,8 hPa 0,0 l/m 0 min 0 min 0 W/m 6,3 km/h (2 Bft) 97,83 %
23.01.2016 20:24 6,2 C 6,7 C 5,0 C 97 % 1 lf 1033,8 hPa 0,0 l/m 0 min 0 min 0 W/m 6,3 km/h (2 Bft) 95,74 %
23.01.2016 20:26 6,2 C 6,7 C 4,4 C 97 % 1 lf 1033,8 hPa 0,0 l/m 0 min 0 min 0 W/m 6,3 km/h (2 Bft) 97,87 %
23.01.2016 20:28 6,2 C 6,7 C 4,4 C 97 % 1 lf 1033,8 hPa 0,0 l/m 0 min 0 min 0 W/m 4,2 km/h (1 Bft) 93,62 %
23.01.2016 20:30 6,2 C 6,7 C 4,4 C 97 % 1 lf 1033,8 hPa 0,0 l/m 0 min 0 min 0 W/m 8,4 km/h (2 Bft) 97,87 %
23.01.2016 20:32 6,2 C 6,7 C 4,4 C 97 % 1 lf 1033,8 hPa 0,0 l/m 0 min 0 min 0 W/m 10,5 km/h (2 Bft) 95,74 %
23.01.2016 20:34 6,2 C 6,7 C 5,0 C 97 % 1 lf 1033,8 hPa 0,0 l/m 0 min 0 min 0 W/m 6,3 km/h (2 Bft) 95,65 %
23.01.2016 20:36 6,2 C 6,7 C 5,0 C 97 % 1 lf 1033,9 hPa 0,0 l/m 0 min 0 min 0 W/m 6,3 km/h (2 Bft) 95,74 %
23.01.2016 20:38 6,2 C 6,7 C 5,0 C 97 % 1 lf 1034,0 hPa 0,0 l/m 0 min 0 min 0 W/m 10,5 km/h (2 Bft) 100,00 %
23.01.2016 20:40 6,2 C 6,7 C 5,0 C 97 % 1 lf 1034,0 hPa 0,0 l/m 0 min 0 min 0 W/m 10,5 km/h (2 Bft) 97,87 %
23.01.2016 20:42 6,2 C 6,7 C 5,0 C 97 % 1 lf 1033,9 hPa 0,0 l/m 0 min 0 min 0 W/m 8,4 km/h (2 Bft) 100,00 %
23.01.2016 20:44 6,2 C 6,7 C 5,0 C 97 % 1 lf 1033,9 hPa 0,0 l/m 0 min 0 min 0 W/m 10,5 km/h (2 Bft) 95,74 %
23.01.2016 20:46 6,2 C 6,7 C 5,0 C 97 % 1 lf 1033,9 hPa 0,0 l/m 0 min 0 min 0 W/m 12,6 km/h (3 Bft) 97,83 %
23.01.2016 20:48 6,1 C 6,7 C 5,0 C 97 % 0 lf 1033,9 hPa 0,0 l/m 0 min 0 min 0 W/m 12,6 km/h (3 Bft) 93,62 %
23.01.2016 20:50 6,1 C 6,7 C 5,0 C 97 % 1 lf 1033,8 hPa 0,0 l/m 0 min 0 min 0 W/m 10,5 km/h (2 Bft) 97,87 %
23.01.2016 20:52 6,1 C 6,7 C 4,4 C 97 % 1 lf 1033,7 hPa 0,0 l/m 0 min 0 min 0 W/m 12,6 km/h (3 Bft) 95,74 %
23.01.2016 20:54 6,1 C 6,7 C 4,4 C 97 % 0 lf 1033,8 hPa 0,0 l/m 0 min 0 min 0 W/m 8,4 km/h (2 Bft) 95,74 %
23.01.2016 20:56 6,1 C 6,7 C 5,0 C 97 % 0 lf 1033,8 hPa 0,0 l/m 0 min 0 min 0 W/m 14,6 km/h (3 Bft) 95,74 %
23.01.2016 20:58 6,2 C 6,7 C 5,0 C 97 % 0 lf 1033,7 hPa 0,0 l/m 0 min 0 min 0 W/m 12,6 km/h (3 Bft) 95,65 %
23.01.2016 21:00 6,2 C 6,7 C 5,0 C 97 % 0 lf 1033,7 hPa 0,0 l/m 0 min 0 min 0 W/m 10,5 km/h (2 Bft) 97,87 %
23.01.2016 21:02 6,2 C 6,7 C 5,0 C 97 % 0 lf 1033,7 hPa 0,0 l/m 0 min 0 min 0 W/m 12,6 km/h (3 Bft) 97,87 %
23.01.2016 21:04 6,2 C 6,7 C 5,0 C 97 % 0 lf 1033,9 hPa 0,0 l/m 0 min 0 min 0 W/m 14,6 km/h (3 Bft) 97,87 %
23.01.2016 21:06 6,2 C 6,7 C 5,0 C 97 % 0 lf 1033,7 hPa 0,0 l/m 0 min 0 min 0 W/m 10,5 km/h (2 Bft) 95,74 %
23.01.2016 21:08 6,2 C 6,7 C 5,0 C 97 % 0 lf 1033,7 hPa 0,0 l/m 0 min 0 min 0 W/m 10,5 km/h (2 Bft) 97,83 %
23.01.2016 21:10 6,2 C 6,7 C 5,0 C 97 % 0 lf 1033,7 hPa 0,0 l/m 0 min 0 min 0 W/m 8,4 km/h (2 Bft) 95,74 %
23.01.2016 21:12 6,2 C 6,7 C 5,0 C 97 % 0 lf 1033,8 hPa 0,0 l/m 0 min 0 min 0 W/m 10,5 km/h (2 Bft) 97,87 %
23.01.2016 21:14 6,2 C 6,7 C 5,0 C 97 % 0 lf 1033,8 hPa 0,0 l/m 0 min 0 min 0 W/m 12,6 km/h (3 Bft) 97,87 %
23.01.2016 21:16 6,2 C 6,7 C 5,0 C 97 % 0 lf 1033,8 hPa 0,0 l/m 0 min 0 min 0 W/m 10,5 km/h (2 Bft) 97,87 %
23.01.2016 21:18 6,2 C 6,7 C 5,0 C 97 % 0 lf 1033,7 hPa 0,0 l/m 0 min 0 min 0 W/m 10,5 km/h (2 Bft) 97,87 %
23.01.2016 21:20 6,2 C 6,7 C 5,0 C 97 % 0 lf 1033,8 hPa 0,0 l/m 0 min 0 min 0 W/m 8,4 km/h (2 Bft) 100,00 %
23.01.2016 21:22 6,2 C 6,7 C 5,0 C 97 % 0 lf 1033,8 hPa 0,0 l/m 0 min 0 min 0 W/m 10,5 km/h (2 Bft) 95,74 %
23.01.2016 21:24 6,2 C 6,7 C 5,0 C 97 % 0 lf 1033,8 hPa 0,0 l/m 0 min 0 min 0 W/m 12,6 km/h (3 Bft) 97,87 %
23.01.2016 21:26 6,2 C 6,7 C 5,0 C 97 % 0 lf 1033,7 hPa 0,0 l/m 0 min 0 min 0 W/m 8,4 km/h (2 Bft) 97,87 %
23.01.2016 21:28 6,2 C 6,7 C 5,0 C 97 % 0 lf 1033,7 hPa 0,0 l/m 0 min 0 min 0 W/m 10,5 km/h (2 Bft) 97,87 %
23.01.2016 21:30 6,2 C 6,7 C 5,0 C 97 % 0 lf 1033,7 hPa 0,0 l/m 0 min 0 min 0 W/m 8,4 km/h (2 Bft) 95,74 %
23.01.2016 21:32 6,2 C 6,7 C 5,0 C 97 % 0 lf 1033,6 hPa 0,0 l/m 0 min 0 min 0 W/m 8,4 km/h (2 Bft) 97,83 %
23.01.2016 21:34 6,3 C 6,7 C 5,0 C 97 % 0 lf 1033,6 hPa 0,0 l/m 0 min 0 min 0 W/m 6,3 km/h (2 Bft) 91,49 %
23.01.2016 21:36 6,3 C 6,7 C 5,0 C 97 % 0 lf 1033,6 hPa 0,0 l/m 0 min 0 min 0 W/m 6,3 km/h (2 Bft) 97,87 %
23.01.2016 21:38 6,3 C 6,7 C 4,4 C 97 % 0 lf 1033,7 hPa 0,0 l/m 0 min 0 min 0 W/m 6,3 km/h (2 Bft) 91,49 %
23.01.2016 21:40 6,3 C 6,7 C 5,0 C 97 % 0 lf 1033,8 hPa 0,0 l/m 0 min 0 min 0 W/m 4,2 km/h (1 Bft) 91,49 %
23.01.2016 21:42 6,3 C 6,7 C 5,0 C 97 % 0 lf 1033,8 hPa 0,0 l/m 0 min 0 min 0 W/m 6,3 km/h (2 Bft) 91,49 %
23.01.2016 21:44 6,3 C 6,7 C 5,0 C 97 % 0 lf 1033,8 hPa 0,0 l/m 0 min 0 min 0 W/m 6,3 km/h (2 Bft) 95,65 %
23.01.2016 21:46 6,3 C 6,7 C 5,0 C 97 % 0 lf 1033,8 hPa 0,0 l/m 0 min 0 min 0 W/m 4,2 km/h (1 Bft) 95,74 %
23.01.2016 21:48 6,3 C 6,7 C 5,0 C 97 % 0 lf 1033,8 hPa 0,0 l/m 0 min 0 min 0 W/m 8,4 km/h (2 Bft) 95,74 %
23.01.2016 21:50 6,3 C 6,7 C 5,0 C 97 % 0 lf 1033,8 hPa 0,0 l/m 0 min 0 min 0 W/m 6,3 km/h (2 Bft) 93,62 %
23.01.2016 21:52 6,3 C 6,7 C 5,0 C 97 % 0 lf 1033,9 hPa 0,0 l/m 0 min 0 min 0 W/m 6,3 km/h (2 Bft) 95,74 %
23.01.2016 21:54 6,3 C 6,1 C 5,0 C 97 % 0 lf 1033,9 hPa 0,0 l/m 0 min 0 min 0 W/m 6,3 km/h (2 Bft) 95,74 %
23.01.2016 21:56 6,2 C 6,1 C 4,4 C 97 % 0 lf 1034,0 hPa 0,0 l/m 0 min 0 min 0 W/m 6,3 km/h (2 Bft) 91,30 %
23.01.2016 21:58 6,2 C 6,1 C 4,4 C 97 % 0 lf 1033,9 hPa 0,0 l/m 0 min 0 min 0 W/m 6,3 km/h (2 Bft) 93,62 %
23.01.2016 22:00 6,2 C 6,1 C 4,4 C 97 % 0 lf 1033,9 hPa 0,0 l/m 0 min 0 min 0 W/m 4,2 km/h (1 Bft) 95,74 %
23.01.2016 22:02 6,2 C 6,1 C 4,4 C 97 % 0 lf 1034,0 hPa 0,0 l/m 0 min 0 min 0 W/m 6,3 km/h (2 Bft) 95,74 %
23.01.2016 22:04 6,2 C 6,1 C 4,4 C 96 % 0 lf 1034,0 hPa 0,0 l/m 0 min 0 min 0 W/m 4,2 km/h (1 Bft) 95,74 %
23.01.2016 22:06 6,2 C 6,1 C 4,4 C 96 % 0 lf 1034,0 hPa 0,0 l/m 0 min 0 min 0 W/m 6,3 km/h (2 Bft) 93,62 %
23.01.2016 22:08 6,1 C 6,1 C 4,4 C 96 % 0 lf 1034,0 hPa 0,0 l/m 0 min 0 min 0 W/m 6,3 km/h (2 Bft) 97,83 %
23.01.2016 22:10 6,1 C 6,1 C 4,4 C 96 % 0 lf 1034,0 hPa 0,0 l/m 0 min 0 min 0 W/m 6,3 km/h (2 Bft) 95,74 %
23.01.2016 22:12 6,1 C 6,1 C 4,4 C 96 % 1 lf 1034,0 hPa 0,0 l/m 0 min 0 min 0 W/m 6,3 km/h (2 Bft) 95,74 %
23.01.2016 22:14 6,1 C 6,1 C 4,4 C 96 % 0 lf 1033,9 hPa 0,0 l/m 0 min 0 min 0 W/m 6,3 km/h (2 Bft) 95,92 %
23.01.2016 22:16 6,1 C 6,1 C 4,4 C 96 % 0 lf 1033,9 hPa 0,0 l/m 0 min 0 min 0 W/m 8,4 km/h (2 Bft) 95,74 %
23.01.2016 22:18 6,0 C 6,1 C 4,4 C 96 % 0 lf 1033,8 hPa 0,0 l/m 0 min 0 min 0 W/m 4,2 km/h (1 Bft) 93,48 %
23.01.2016 22:20 6,0 C 6,1 C 4,4 C 96 % 0 lf 1033,8 hPa 0,0 l/m 0 min 0 min 0 W/m 6,3 km/h (2 Bft) 95,74 %
23.01.2016 22:22 6,0 C 6,1 C 4,4 C 96 % 1 lf 1033,8 hPa 0,0 l/m 0 min 0 min 0 W/m 8,4 km/h (2 Bft) 97,87 %
23.01.2016 22:24 6,0 C 6,1 C 4,4 C 96 % 1 lf 1033,7 hPa 0,0 l/m 0 min 0 min 0 W/m 6,3 km/h (2 Bft) 97,87 %
23.01.2016 22:26 5,9 C 6,1 C 4,4 C 96 % 1 lf 1033,6 hPa 0,0 l/m 0 min 0 min 0 W/m 8,4 km/h (2 Bft) 91,49 %
23.01.2016 22:28 5,9 C 6,1 C 4,4 C 96 % 1 lf 1033,6 hPa 0,0 l/m 0 min 0 min 0 W/m 8,4 km/h (2 Bft) 97,87 %
23.01.2016 22:30 5,9 C 6,1 C 4,4 C 96 % 1 lf 1033,7 hPa 0,0 l/m 0 min 0 min 0 W/m 6,3 km/h (2 Bft) 95,65 %
23.01.2016 22:32 5,9 C 5,6 C 4,4 C 96 % 1 lf 1033,7 hPa 0,0 l/m 0 min 0 min 0 W/m 8,4 km/h (2 Bft) 95,74 %
23.01.2016 22:34 5,9 C 5,6 C 4,4 C 96 % 1 lf 1033,7 hPa 0,0 l/m 0 min 0 min 0 W/m 12,6 km/h (3 Bft) 91,49 %
23.01.2016 22:36 5,8 C 5,6 C 4,4 C 96 % 1 lf 1033,7 hPa 0,0 l/m 0 min 0 min 0 W/m 10,5 km/h (2 Bft) 95,74 %
23.01.2016 22:38 5,8 C 5,6 C 4,4 C 96 % 1 lf 1033,6 hPa 0,0 l/m 0 min 0 min 0 W/m 14,6 km/h (3 Bft) 95,74 %
23.01.2016 22:40 5,8 C 5,6 C 3,9 C 96 % 1 lf 1033,6 hPa 0,0 l/m 0 min 0 min 0 W/m 12,6 km/h (3 Bft) 95,74 %
23.01.2016 22:42 5,8 C 5,6 C 3,9 C 96 % 1 lf 1033,6 hPa 0,0 l/m 0 min 0 min 0 W/m 10,5 km/h (2 Bft) 97,83 %
23.01.2016 22:44 5,8 C 5,6 C 3,9 C 96 % 1 lf 1033,6 hPa 0,0 l/m 0 min 0 min 0 W/m 10,5 km/h (2 Bft) 95,74 %
23.01.2016 22:46 5,7 C 5,6 C 3,9 C 96 % 1 lf 1033,5 hPa 0,0 l/m 0 min 0 min 0 W/m 12,6 km/h (3 Bft) 97,87 %
23.01.2016 22:48 5,7 C 5,6 C 3,9 C 96 % 1 lf 1033,5 hPa 0,0 l/m 0 min 0 min 0 W/m 12,6 km/h (3 Bft) 95,74 %
23.01.2016 22:50 5,7 C 5,6 C 3,9 C 96 % 1 lf 1033,5 hPa 0,0 l/m 0 min 0 min 0 W/m 12,6 km/h (3 Bft) 95,74 %
23.01.2016 22:52 5,7 C 5,6 C 3,9 C 95 % 1 lf 1033,5 hPa 0,0 l/m 0 min 0 min 0 W/m 18,8 km/h (3 Bft) 93,62 %
23.01.2016 22:54 5,6 C 5,6 C 3,9 C 96 % 1 lf 1033,5 hPa 0,0 l/m 0 min 0 min 0 W/m 14,6 km/h (3 Bft) 95,65 %
23.01.2016 22:56 5,6 C 5,6 C 3,9 C 96 % 1 lf 1033,4 hPa 0,0 l/m 0 min 0 min 0 W/m 12,6 km/h (3 Bft) 95,74 %
23.01.2016 22:58 5,6 C 5,6 C 3,9 C 96 % 1 lf 1033,4 hPa 0,0 l/m 0 min 0 min 0 W/m 12,6 km/h (3 Bft) 93,62 %
23.01.2016 23:00 5,6 C 5,6 C 3,9 C 95 % 1 lf 1033,5 hPa 0,0 l/m 0 min 0 min 0 W/m 12,6 km/h (3 Bft) 95,74 %
23.01.2016 23:02 5,5 C 5,6 C 3,9 C 95 % 1 lf 1033,4 hPa 0,0 l/m 0 min 0 min 0 W/m 16,7 km/h (3 Bft) 93,62 %
23.01.2016 23:04 5,4 C 5,6 C 3,9 C 95 % 1 lf 1033,4 hPa 0,0 l/m 0 min 0 min 0 W/m 14,6 km/h (3 Bft) 95,74 %
23.01.2016 23:06 5,4 C 5,6 C 3,3 C 95 % 1 lf 1033,4 hPa 0,0 l/m 0 min 0 min 0 W/m 12,6 km/h (3 Bft) 93,48 %
23.01.2016 23:08 5,4 C 5,6 C 3,3 C 95 % 1 lf 1033,4 hPa 0,0 l/m 0 min 0 min 0 W/m 10,5 km/h (2 Bft) 95,74 %
23.01.2016 23:10 5,4 C 5,6 C 3,3 C 95 % 1 lf 1033,5 hPa 0,0 l/m 0 min 0 min 0 W/m 12,6 km/h (3 Bft) 95,74 %
23.01.2016 23:12 5,4 C 5,6 C 3,9 C 95 % 1 lf 1033,5 hPa 0,0 l/m 0 min 0 min 0 W/m 10,5 km/h (2 Bft) 97,87 %
23.01.2016 23:14 5,3 C 5,0 C 3,3 C 95 % 1 lf 1033,5 hPa 0,0 l/m 0 min 0 min 0 W/m 10,5 km/h (2 Bft) 97,87 %
23.01.2016 23:16 5,3 C 5,6 C 3,3 C 95 % 1 lf 1033,5 hPa 0,0 l/m 0 min 0 min 0 W/m 16,7 km/h (3 Bft) 97,87 %
23.01.2016 23:18 5,3 C 5,6 C 3,3 C 95 % 1 lf 1033,5 hPa 0,0 l/m 0 min 0 min 0 W/m 10,5 km/h (2 Bft) 97,83 %
23.01.2016 23:20 5,3 C 5,6 C 3,9 C 95 % 1 lf 1033,5 hPa 0,0 l/m 0 min 0 min 0 W/m 10,5 km/h (2 Bft) 97,87 %
23.01.2016 23:22 5,3 C 5,6 C 3,9 C 95 % 0 lf 1033,5 hPa 0,0 l/m 0 min 0 min 0 W/m 12,6 km/h (3 Bft) 95,74 %
23.01.2016 23:24 5,3 C 5,6 C 3,9 C 95 % 0 lf 1033,5 hPa 0,0 l/m 0 min 0 min 0 W/m 10,5 km/h (2 Bft) 97,87 %
23.01.2016 23:26 5,2 C 5,6 C 3,9 C 95 % 1 lf 1033,6 hPa 0,0 l/m 0 min 0 min 0 W/m 10,5 km/h (2 Bft) 97,87 %
23.01.2016 23:28 5,2 C 5,6 C 3,9 C 95 % 0 lf 1033,5 hPa 0,0 l/m 0 min 0 min 0 W/m 10,5 km/h (2 Bft) 95,74 %
23.01.2016 23:30 5,2 C 5,6 C 3,9 C 95 % 0 lf 1033,5 hPa 0,0 l/m 0 min 0 min 0 W/m 10,5 km/h (2 Bft) 97,83 %
23.01.2016 23:32 5,2 C 5,6 C 3,9 C 95 % 0 lf 1033,5 hPa 0,0 l/m 0 min 0 min 0 W/m 14,6 km/h (3 Bft) 97,87 %
23.01.2016 23:34 5,2 C 5,6 C 3,9 C 95 % 0 lf 1033,5 hPa 0,0 l/m 0 min 0 min 0 W/m 12,6 km/h (3 Bft) 97,87 %
23.01.2016 23:36 5,2 C 5,6 C 3,9 C 95 % 0 lf 1033,4 hPa 0,0 l/m 0 min 0 min 0 W/m 14,6 km/h (3 Bft) 95,74 %
23.01.2016 23:38 5,2 C 5,6 C 3,9 C 95 % 0 lf 1033,3 hPa 0,0 l/m 0 min 0 min 0 W/m 10,5 km/h (2 Bft) 95,74 %
23.01.2016 23:40 5,2 C 5,6 C 3,9 C 95 % 0 lf 1033,2 hPa 0,0 l/m 0 min 0 min 0 W/m 16,7 km/h (3 Bft) 97,83 %
23.01.2016 23:42 5,2 C 5,6 C 3,9 C 95 % 0 lf 1033,2 hPa 0,0 l/m 0 min 0 min 0 W/m 14,6 km/h (3 Bft) 100,00 %
23.01.2016 23:44 5,2 C 5,6 C 3,9 C 95 % 0 lf 1033,1 hPa 0,0 l/m 0 min 0 min 0 W/m 12,6 km/h (3 Bft) 93,62 %
23.01.2016 23:46 5,2 C 5,6 C 3,9 C 95 % 0 lf 1033,1 hPa 0,0 l/m 0 min 0 min 0 W/m 10,5 km/h (2 Bft) 100,00 %
23.01.2016 23:48 5,2 C 5,6 C 3,9 C 95 % 0 lf 1033,0 hPa 0,0 l/m 0 min 0 min 0 W/m 12,6 km/h (3 Bft) 95,74 %
23.01.2016 23:50 5,2 C 5,6 C 3,9 C 95 % 0 lf 1032,9 hPa 0,0 l/m 0 min 0 min 0 W/m 14,6 km/h (3 Bft) 100,00 %
23.01.2016 23:52 5,2 C 5,6 C 3,3 C 95 % 0 lf 1032,9 hPa 0,0 l/m 0 min 0 min 0 W/m 12,6 km/h (3 Bft) 95,65 %
23.01.2016 23:54 5,2 C 5,0 C 3,3 C 95 % 0 lf 1032,8 hPa 0,0 l/m 0 min 0 min 0 W/m 14,6 km/h (3 Bft) 100,00 %
23.01.2016 23:56 5,2 C 5,0 C 3,3 C 95 % 0 lf 1032,9 hPa 0,0 l/m 0 min 0 min 0 W/m 10,5 km/h (2 Bft) 97,87 %
23.01.2016 23:58 5,2 C 5,0 C 3,3 C 95 % 0 lf 1032,8 hPa 0,0 l/m 0 min 0 min 0 W/m 8,4 km/h (2 Bft) 100,00 %
_ Min-Zeit 00:02 00:00 00:00 22:52 11:10 00:08 - - - - 17:00 06:00
Minimum _ 0,4 C 0,0 C -0,6 C 95 % 0 lf 1021,5 hPa - - - - 2,1 km/h (1 Bft) 85,11 %
_ Max-Zeit 14:20 10:48 13:12 04:44 00:00 20:38 00:14 00:00 00:00 11:00 01:54 03:30
Maximum _ 6,9 C 7,8 C 6,1 C 99 % 15 lf 1034,0 hPa 0,2 l/m 0 min 0 min 125 W/m 29,3 km/h
W-SW (5 Bft)
100,00 %
Durchschnitt _ 5,6 C 6,0 C 4,3 C 98 % 7 lf 1029,6 hPa #0,2 l/m #0 min. #0 min. 48 W/m 14,1 km/h (3 Bft) 96,09 %
© 2016 W. Hausmann